                ,  0.290,  0.386,  0.483,  0.580,  0.676,  0.773,  0.869,  0.966,  1.063,  1.159,  1.256,  1.352,  1.449,  1.545,  1.642,  1.739,  1.835,  1.932,  2.028,  2.125,  2.222,  2.318,  2.415,  2.511,  2.608,  2.705,  2.801,  2.898,  2.994,  3.091,  3.188,  3.284,  3.381,  3.477,  3.574,  3.671,  3.767,  3.864,  3.960,  4.057,  4.153,  4.250,  4.347,  4.443,  4.540,  4.636,  4.733,  4.830,  4.926,  5.023,  5.119,  5.216,  5.313,  5.409,  5.506,  5.602,  5.699,  5.796
2000/12/21 00:00,  999.0,   -1.1,   -0.3,    1.3,    1.1,    2.0,    4.0,    3.5,    3.4,    5.5,    7.1,    8.0,    8.4,    8.2,    7.6,    7.0,    7.9,    7.3,    7.9,    8.2,  999.0,    8.8,   10.5,   13.1,  999.0,  999.0,   14.6,   16.8,   17.5,  999.0,  999.0,  999.0,   22.4,  999.0,  999.0,   24.5,   26.2,  999.0,  999.0,  999.0,  999.0,   25.1,  999.0,  999.0,  999.0,  999.0,   24.6,   24.8,  999.0,  999.0,  999.0,  999.0,  999.0,  999.0,  999.0,  999.0,  999.0,  999.0
2000/12/21 00:10,  999.0,   -2.1,    0.2,   -1.6,   -1.1,    0.3,    1.5,    6.1,    5.5,    5.8,    7.4,    8.4,    8.0,    7.3,    6.2,    6.0,    7.2,    4.3,    7.3,    8.4,    8.2,    9.2,    9.5,  999.0,   14.6,   15.4,  999.0,   17.8,   18.8,  999.0,   24.9,  999.0,  999.0,  999.0,  999.0,  999.0,  999.0,  999.0,  999.0,  999.0,  999.0,  999.0,  999.0,  999.0,  999.0,   23.9,  999.0,  999.0,  999.0,  999.0,   24.5,  999.0,  999.0,   25.3,   25.4,   25.6,  999.0,  999.0
2000/12/21 00:20,  999.0,   -0.9,   -3.2,   -1.2,   -0.3,    0.9,    1.6,    3.9,    5.3,    4.6,    6.6,    7.3,    7.4,    7.0,    6.3,    6.2,    6.8,    7.5,    8.1,    8.2,    6.7,    7.0,    9.3,    9.5,   11.7,   14.3,   15.9,  999.0,  999.0,  999.0,  999.0,  999.0,  999.0,  999.0,  999.0,  999.0,  999.0,  999.0,  999.0,  999.0,  999.0,  999.0,   24.7,   25.1,  999.0,  999.0,  999.0,  999.0,  999.0,  999.0,  999.0,  999.0,  999.0,  999.0,   25.1,  999.0,  999.0,  999.0
2000/12/21 00:30,  999.0,   -1.2,   -1.3,   -0.8,   -1.6,   -0.6,    2.0,    5.2,  999.0,    3.7,    4.0,    7.2,    7.9,    7.6,    5.5,    5.7,    7.1,    7.6,    7.9,    8.2,    8.1,    9.3,   11.7,   13.4,   14.8,  999.0,  999.0,   18.7,  999.0,  999.0,  999.0,  999.0,  999.0,  999.0,  999.0,  999.0,  999.0,  999.0,  999.0,  999.0,  999.0,  999.0,   24.6,   25.2,   24.4,   24.3,   23.3,  999.0,  999.0,  999.0,  999.0,  999.0,  999.0,  999.0,  999.0,  999.0,  999.0,  999.0
2000/12/21 00:40,  999.0,   -0.1,    0.1,    1.0,    0.5,   -0.3,    0.2,    2.2,    2.3,  999.0,    0.9,    6.0,    6.9,    8.1,    6.4,    5.7,    6.3,    7.9,    9.1,    9.1,    9.7,   10.5,   11.8,   11.8,   15.1,   17.1,   16.3,   17.0,   18.0,  999.0,  999.0,  999.0,  999.0,  999.0,  999.0,   24.4,  999.0,   25.1,  999.0,  999.0,  999.0,  999.0,   25.0,   25.3,   24.6,  999.0,   26.0,  999.0,  999.0,   24.2,  999.0,   24.2,  999.0,  999.0,   24.5,  999.0,  999.0,   24.4
2000/12/21 00:50,  999.0,    1.8,   -0.4,    0.1,    0.1,    0.6,   -0.1,    2.3,    2.3,    3.5,  999.0,    5.4,    6.1,    6.5,    5.1,    4.8,    6.2,    7.2,    8.4,    8.6,    8.1,    8.7,   11.0,   12.5,   13.2,  999.0,  999.0,  999.0,   16.9,  999.0,  999.0,  999.0,  999.0,  999.0,  999.0,  999.0,  999.0,  999.0,   24.9,  999.0,  999.0,  999.0,  999.0,  999.0,   25.3,   23.7,   23.6,   24.1,   22.6,   24.5,  999.0,  999.0,  999.0,  999.0,  999.0,   24.4,  999.0,  999.0
2000/12/21 01:00,  999.0,   -1.4,   -1.2,    0.7,    1.5,    1.0,    1.4,    2.2,    5.0,    6.4,    6.2,    6.9,    6.8,    5.9,    5.4,    6.3,    7.1,    7.2,    8.4,    9.0,   10.8,  999.0,  999.0,   17.6,   19.7,   21.7,   21.9,   23.7,   23.2,  999.0,  999.0,  999.0,  999.0,  999.0,  999.0,  999.0,  999.0,   27.3,  999.0,  999.0,  999.0,  999.0,  999.0,   24.7,   25.1,   24.4,   24.0,  999.0,  999.0,   24.3,  999.0,  999.0,  999.0,  999.0,   24.2,   24.0,  999.0,  999.0
2000/12/21 01:10,  999.0,   -3.0,   -0.9,    0.2,    1.1,   -0.1,   -0.2,    0.2,    2.4,    3.5,    4.7,    6.0,    6.6,    4.9,    4.6,    5.4,    6.1,    6.6,    7.8,    9.1,   11.1,   12.7,   17.5,   16.7,   19.9,   22.3,   23.2,   25.2,  999.0,  999.0,  999.0,  999.0,  999.0,  999.0,  999.0,  999.0,  999.0,  999.0,   25.8,  999.0,  999.0,  999.0,  999.0,   25.5,   24.9,  999.0,  999.0,  999.0,  999.0,  999.0,  999.0,  999.0,   24.1,  999.0,   24.0,  999.0,  999.0,   23.5
2000/12/21 01:20,  999.0,   -1.4,   -1.1,    1.4,    0.1,    0.0,   -0.4,    3.4,    3.4,    3.2,    4.9,    6.0,    5.7,    5.7,    4.8,    5.2,    7.1,    7.5,    6.6,    6.1,    8.3,   10.2,  999.0,  999.0,   16.6,   18.8,   20.6,   22.9,  999.0,  999.0,  999.0,  999.0,  999.0,  999.0,  999.0,  999.0,  999.0,  999.0,  999.0,  999.0,  999.0,   25.8,  999.0,   25.5,   25.6,   25.8,  999.0,  999.0,  999.0,   22.7,  999.0,  999.0,  999.0,  999.0,   24.1,   24.1,  999.0,  999.0
2000/12/21 01:30,  999.0,   -0.8,   -0.1,    2.1,   -1.0,   -0.2,    0.2,    0.9,    1.7,    2.1,    4.1,    5.5,    5.6,    5.4,    4.6,    4.6,    5.7,    6.9,    7.3,    8.4,    9.6,   10.5,   12.1,   13.0,   14.6,   16.9,   17.5,   18.7,   19.4,  999.0,  999.0,  999.0,  999.0,  999.0,  999.0,  999.0,  999.0,  999.0,  999.0,  999.0,  999.0,  999.0,   24.7,   25.3,   25.0,   24.7,   25.3,  999.0,  999.0,  999.0,  999.0,  999.0,  999.0,  999.0,   21.2,  999.0,  999.0,  999.0
2000/12/21 01:40,  999.0,   -0.5,   -0.1,    1.0,   -0.3,    0.8,    0.4,    0.7,    3.9,    0.7,    3.9,    4.5,    5.1,    5.1,    5.0,    5.0,    5.8,    7.1,    6.6,    7.3,    7.7,    8.3,    9.4,   10.8,  999.0,   12.1,   14.7,   14.0,  999.0,  999.0,  999.0,  999.0,  999.0,  999.0,  999.0,  999.0,  999.0,  999.0,  999.0,  999.0,  999.0,  999.0,   25.6,   25.7,   25.7,   24.2,  999.0,  999.0,  999.0,  999.0,  999.0,   24.7,  999.0,  999.0,  999.0,  999.0,  999.0,  999.0
2000/12/21 01:50,  999.0,   -0.9,    0.2,    0.7,    1.0,    1.8,    2.6,    1.2,   -0.3,   -0.0,  999.0,    8.3,    6.2,    6.3,    6.5,    6.5,    6.4,    7.6,  999.0,    7.2,    8.5,    9.3,   10.1,   11.9,  999.0,   18.9,   16.8,   17.6,   17.0,  999.0,  999.0,  999.0,  999.0,  999.0,  999.0,  999.0,  999.0,  999.0,  999.0,  999.0,  999.0,  999.0,   23.3,   25.3,   25.1,  999.0,  999.0,  999.0,  999.0,  999.0,  999.0,  999.0,  999.0,  999.0,  999.0,  999.0,  999.0,  999.0
2000/12/21 02:00,  999.0,    0.8,   -0.6,   -0.0,    2.2,    1.4,    1.6,    3.6,    5.0,  999.0,    0.3,  999.0,    5.0,    5.1,    5.5,    6.1,    6.8,    8.7,    9.9,  999.0,  999.0,   13.5,   15.0,   16.8,  999.0,  999.0,   20.7,   22.5,   25.8,  999.0,  999.0,  999.0,  999.0,  999.0,  999.0,  999.0,  999.0,  999.0,  999.0,  999.0,  999.0,  999.0,  999.0,   24.4,   25.0,   25.3,  999.0,  999.0,  999.0,  999.0,   23.0,  999.0,  999.0,  999.0,  999.0,   22.2,  999.0,   25.3
2000/12/21 02:10,  999.0,   -1.1,   -0.4,    0.4,    2.5,    1.2,    0.5,   -0.1,  999.0,    3.7,    2.5,    5.9,  999.0,    3.8,    4.7,    5.1,    5.4,    5.5,   10.9,    7.2,  999.0,   10.4,   10.2,   11.4,   13.1,  999.0,   15.1,   17.8,   20.2,  999.0,  999.0,  999.0,  999.0,  999.0,  999.0,  999.0,  999.0,  999.0,  999.0,  999.0,  999.0,  999.0,  999.0,   24.9,   25.0,   25.7,  999.0,  999.0,  999.0,   24.1,   23.3,  999.0,  999.0,  999.0,   23.5,  999.0,  999.0,  999.0
2000/12/21 02:20,  999.0,   -0.7,   -1.1,    1.2,    0.2,    0.1,    0.5,    1.5,    0.6,    0.5,    1.3,  999.0,    4.3,    4.0,    4.2,    4.8,    5.3,    5.7,    6.9,  999.0,    9.6,  999.0,   12.9,   15.2,   17.3,   20.4,   19.4,   21.5,  999.0,  999.0,  999.0,  999.0,  999.0,  999.0,  999.0,  999.0,  999.0,  999.0,  999.0,  999.0,  999.0,   26.5,  999.0,   25.7,   26.5,   27.2,  999.0,  999.0,  999.0,  999.0,   23.1,  999.0,  999.0,  999.0,  999.0,  999.0,  999.0,  999.0
2000/12/21 02:30,  999.0,   -1.1,   -0.4,    0.6,    1.4,    0.6,    1.7,    0.7,    0.7,    0.8,    0.5,  999.0,    2.5,    3.6,    4.3,    4.6,    5.5,    6.4,    7.4,    8.6,    8.5,   12.2,   15.0,   14.2,   16.5,   20.4,   20.1,   22.4,   23.8,  999.0,  999.0,   27.2,  999.0,  999.0,  999.0,  999.0,  999.0,  999.0,  999.0,  999.0,  999.0,  999.0,  999.0,   26.0,   26.0,   26.5,  999.0,   23.8,  999.0,  999.0,   22.9,  999.0,  999.0,  999.0,  999.0,   27.5,  999.0,  999.0
2000/12/21 02:40,  999.0,   -1.4,   -0.7,    0.8,    0.9,    0.6,    1.3,   -0.5,    0.3,   -0.1,    5.4,  999.0,  999.0,    3.6,    4.0,    4.4,    5.3,    6.0,    6.9,    7.9,    8.0,    8.4,    8.1,   13.9,   15.9,   18.2,  999.0,   22.3,   24.0,  999.0,  999.0,  999.0,  999.0,   29.1,  999.0,  999.0,  999.0,  999.0,  999.0,  999.0,  999.0,  999.0,   26.2,   26.6,   24.6,   24.9,   24.7,  999.0,  999.0,   22.7,   22.8,  999.0,  999.0,  999.0,  999.0,   21.8,   22.5,   22.3
2000/12/21 02:50,  999.0,   -1.0,    0.0,    1.2,    0.4,   -0.9,    0.1,    0.0,   -1.2,    1.8,    0.7,    1.3,    1.2,  999.0,    4.2,    4.0,    4.7,    5.8,    6.3,    7.0,    8.5,    9.1,   10.6,   12.3,   14.4,   16.5,  999.0,   18.8,   20.7,  999.0,  999.0,  999.0,  999.0,  999.0,  999.0,  999.0,   25.7,  999.0,  999.0,  999.0,  999.0,  999.0,  999.0,  999.0,   24.2,   24.2,   24.9,  999.0,  999.0,   20.9,   22.0,   22.1,  999.0,  999.0,  999.0,  999.0,  999.0,  999.0
2000/12/21 03:00,  999.0,   -0.7,   -0.2,    0.3,    0.6,    0.4,    0.9,    1.1,    1.1,    2.2,    2.1,    2.7,  999.0,  999.0,    4.1,    4.1,    4.6,    5.4,    5.5,    5.7,    6.8,    7.1,    8.1,    9.7,   11.0,   13.0,   15.1,   18.1,  999.0,  999.0,  999.0,   19.7,   20.3,  999.0,  999.0,  999.0,  999.0,  999.0,  999.0,  999.0,  999.0,   23.1,  999.0,   23.3,   24.0,   25.5,   22.6,   23.2,  999.0,  999.0,   21.7,   21.9,  999.0,  999.0,  999.0,  999.0,  999.0,   21.9
2000/12/21 03:10,  999.0,    0.3,   -0.4,   -1.7,   -0.9,   -1.2,   -0.7,   -0.1,    0.2,    2.1,    0.6,    0.3,   -6.4,  999.0,    2.8,    3.5,    3.7,  999.0,    6.0,    5.6,    6.1,    6.2,    7.3,    8.6,   10.8,   12.4,   12.8,  999.0,  999.0,  999.0,   19.8,  999.0,  999.0,  999.0,  999.0,   25.2,   25.4,   25.6,  999.0,  999.0,   24.7,  999.0,   25.9,   24.5,   24.8,   23.5,  999.0,  999.0,  999.0,  999.0,   22.9,  999.0,   22.5,   23.4,  999.0,  999.0,  999.0,  999.0
2000/12/21 03:20,  999.0,   -0.6,   -1.5,   -1.5,   -2.0,    0.3,    2.7,    2.6,    1.5,    2.8,    1.5,  999.0,    4.5,  999.0,    3.9,    4.2,    3.4,    5.3,    6.8,    6.4,    6.6,    6.8,    7.0,    7.1,    8.1,   10.4,  999.0,  999.0,  999.0,  999.0,  999.0,  999.0,  999.0,  999.0,  999.0,  999.0,  999.0,  999.0,  999.0,  999.0,  999.0,   29.0,   25.6,   25.4,   25.6,   25.8,   24.2,  999.0,  999.0,  999.0,  999.0,  999.0,  999.0,  999.0,  999.0,  999.0,  999.0,  999.0
2000/12/21 03:30,  999.0,    0.7,    0.5,   -0.4,   -1.5,   -0.4,   -0.2,    0.4,    0.7,    0.5,    1.6,    3.5,    1.1,  999.0,    4.2,    3.8,  999.0,  999.0,    6.4,    6.2,    5.9,    6.8,    8.1,    8.8,    9.9,   11.0,    8.2,  999.0,   12.2,   15.4,  999.0,  999.0,  999.0,  999.0,   21.0,  999.0,  999.0,  999.0,   27.4,  999.0,  999.0,  999.0,   24.2,   24.2,   24.9,  999.0,  999.0,  999.0,  999.0,  999.0,  999.0,  999.0,  999.0,  999.0,  999.0,  999.0,  999.0,  999.0
2000/12/21 03:40,  999.0,    0.3,   -0.2,   -0.5,   -1.2,   -1.2,   -0.2,    0.0,    2.5,    0.6,   -0.8,  999.0,  999.0,    3.3,    3.7,    4.9,    6.0,  999.0,    6.6,    6.5,    7.4,    8.2,    8.9,   10.3,   10.9,   12.5,   13.7,   18.6,   12.0,  999.0,  999.0,  999.0,  999.0,  999.0,  999.0,  999.0,  999.0,  999.0,  999.0,  999.0,  999.0,  999.0,   25.1,   25.6,   26.1,  999.0,  999.0,  999.0,  999.0,  999.0,  999.0,  999.0,  999.0,  999.0,  999.0,  999.0,  999.0,  999.0
2000/12/21 03:50,  999.0,   -0.2,   -0.4,   -1.7,   -1.6,   -0.7,    0.3,   -0.0,    0.9,  999.0,    1.1,    2.6,    3.0,    4.2,    5.0,    5.8,    6.3,    7.1,    6.3,    6.2,    7.3,    8.1,    7.6,    7.2,    6.9,    8.1,    9.9,   12.3,   12.5,   13.8,  999.0,  999.0,  999.0,  999.0,  999.0,  999.0,  999.0,  999.0,  999.0,  999.0,   25.3,  999.0,  999.0,   24.8,   25.0,   24.3,   24.1,  999.0,  999.0,   24.7,  999.0,  999.0,  999.0,  999.0,  999.0,  999.0,  999.0,  999.0
2000/12/21 04:00,  999.0,   -0.4,   -0.3,   -0.8,   -0.5,    0.1,    2.0,    1.9,    1.5,    4.0,    0.6,    4.2,    5.4,    4.8,    5.5,    5.3,    6.3,    6.1,    5.8,    6.3,    7.2,    8.3,    7.3,    6.1,    5.8,    5.8,    6.4,    8.6,    9.7,  999.0,  999.0,  999.0,   17.0,  999.0,  999.0,  999.0,  999.0,  999.0,  999.0,   26.6,   27.5,  999.0,  999.0,   24.6,   24.4,   23.7,   23.9,   24.4,  999.0,  999.0,  999.0,  999.0,  999.0,  999.0,  999.0,  999.0,  999.0,   23.9
2000/12/21 04:10,  999.0,   -0.6,   -1.4,   -0.9,    1.0,    1.0,    1.5,   -0.2,  999.0,  999.0,    0.8,    1.2,    2.5,    4.8,    5.4,    5.7,    5.5,  999.0,    6.4,    7.0,    6.9,    7.1,    7.5,    6.4,    6.0,    6.5,    7.1,   10.0,   10.8,  999.0,  999.0,  999.0,  999.0,  999.0,  999.0,  999.0,  999.0,  999.0,  999.0,  999.0,  999.0,  999.0,   25.5,  999.0,   24.9,   24.5,   25.5,   25.8,  999.0,  999.0,  999.0,  999.0,  999.0,  999.0,  999.0,  999.0,  999.0,  999.0
2000/12/21 04:20,  999.0,    0.4,   -0.7,   -0.3,    0.7,    1.7,    1.6,    0.4,    4.3,    2.1,    3.3,    4.4,    4.3,    4.1,    4.6,    6.0,    6.8,    6.4,    5.9,    6.8,    6.4,    6.7,    6.7,    6.9,    5.8,    5.8,    6.3,    9.5,  999.0,  999.0,  999.0,  999.0,  999.0,  999.0,  999.0,  999.0,  999.0,  999.0,  999.0,  999.0,  999.0,  999.0,  999.0,  999.0,  999.0,   24.2,   25.7,   27.4,   25.1,  999.0,  999.0,  999.0,  999.0,  999.0,  999.0,  999.0,  999.0,  999.0
2000/12/21 04:30,  999.0,  999.0,   -2.0,   -0.2,    0.8,    0.2,   -0.0,    0.4,   -0.3,    0.9,    0.7,    7.8,  999.0,    4.7,    4.3,    5.0,    6.0,    5.5,    5.0,    5.2,    5.8,    5.3,    5.5,    6.0,    5.6,    6.3,    8.1,    9.9,  999.0,  999.0,  999.0,  999.0,  999.0,  999.0,  999.0,  999.0,  999.0,  999.0,  999.0,  999.0,  999.0,   22.3,  999.0,  999.0,   25.4,   26.3,   26.5,   25.5,  999.0,  999.0,  999.0,  999.0,  999.0,  999.0,  999.0,  999.0,  999.0,  999.0
2000/12/21 04:40,  999.0,    0.2,   -1.3,   -1.0,    0.7,    1.1,    1.0,    2.5,    0.8,    1.6,    0.8,  999.0,    1.8,    3.3,    3.1,  999.0,    6.8,    7.1,    5.6,    6.2,    5.7,    6.2,    5.9,    6.5,    8.1,    9.4,   10.9,   12.9,   16.7,  999.0,  999.0,  999.0,  999.0,  999.0,  999.0,  999.0,  999.0,  999.0,  999.0,  999.0,  999.0,  999.0,  999.0,  999.0,  999.0,   25.0,  999.0,  999.0,   25.5,  999.0,  999.0,   26.2,  999.0,  999.0,  999.0,  999.0,  999.0,  999.0
2000/12/21 04:50,  999.0,  999.0,   -1.1,   -0.3,    1.5,    1.1,    1.8,    1.1,    1.2,    1.1,    1.1,    2.5,    3.7,    4.0,    5.0,    5.2,    5.6,    5.2,    5.8,    4.9,    4.9,    4.8,    5.0,    5.7,    6.1,    5.6,    7.4,   10.1,   11.4,   13.5,  999.0,  999.0,  999.0,  999.0,  999.0,  999.0,  999.0,  999.0,  999.0,  999.0,   -0.7,   -0.5,  999.0,  999.0,  -33.5,   -1.8,  -41.6,   25.0,   15.3,   10.0,  999.0,  -41.6,  -42.4,  -39.8,  -23.1,  999.0,  999.0,  999.0
2000/12/21 05:00,  999.0,  999.0,    0.3,    1.2,    0.8,    1.3,    1.9,    2.3,    1.9,    1.6,    2.8,    4.4,    3.2,    5.3,    5.1,    4.2,    3.8,    4.4,    5.0,    5.1,    4.9,    5.0,    5.1,    5.4,    5.9,    6.1,    7.0,    8.5,   10.3,   12.5,  999.0,  999.0,  999.0,  999.0,  999.0,  999.0,  999.0,  999.0,   17.3,  999.0,  999.0,  999.0,  999.0,  999.0,  999.0,  999.0,  999.0,  999.0,   -0.1,   -1.3,   -0.4,  999.0,  999.0,   -1.4,   -1.2,   -1.3,  999.0,   -0.7
2000/12/21 05:10,  999.0,    3.3,   -0.9,   -1.0,    1.3,    0.8,   -0.4,   -1.5,    0.0,    1.3,    2.2,  999.0,    2.9,    3.8,    5.1,    5.9,    5.8,    5.4,    5.5,    5.4,    5.3,    5.6,    5.2,    5.2,    6.5,    5.9,    7.4,    9.7,   11.5,   11.3,  999.0,  999.0,  999.0,  999.0,  999.0,   11.5,   15.8,  999.0,  999.0,  999.0,   -3.2,  999.0,   -0.9,   -0.5,   -1.2,  999.0,  999.0,   -0.5,    0.8,  999.0,   -0.5,  999.0,  999.0,  999.0,  999.0,   -0.8,  999.0,  999.0
2000/12/21 05:20,  999.0,   -0.6,   -1.2,    0.2,   -0.0,    0.3,    0.7,    0.3,    0.3,    1.6,    1.0,    3.3,    2.2,    3.1,    3.6,    3.8,    4.6,    5.7,    6.3,    6.6,    6.6,    6.3,    5.8,    6.3,    6.0,    6.5,    8.1,    9.5,   12.2,  999.0,  999.0,  999.0,   28.9,   29.8,   32.6,  999.0,   34.1,  999.0,  999.0,  999.0,  999.0,  999.0,  999.0,  999.0,  999.0,  999.0,   -0.5,   -0.6,   -1.0,   -1.2,   -1.0,  999.0,   -0.8,   -1.1,   -1.0,  999.0,   -1.3,   -1.2
2000/12/21 05:30,  999.0,  999.0,  999.0,  999.0,    0.9,    1.1,    0.9,   -1.5,    0.7,    2.1,    3.1,    4.5,    2.1,    2.9,    3.2,    3.7,    4.0,    5.0,    3.7,    4.4,    5.4,    5.5,    5.4,    5.5,    5.2,    5.7,    7.0,    8.3,    8.8,    8.5,  999.0,  999.0,  999.0,  999.0,  999.0,  999.0,  999.0,  999.0,  999.0,  999.0,  999.0,  999.0,  999.0,  999.0,  999.0,  999.0,   -0.4,   -1.0,   -6.8,    4.5,    1.9,   -0.2,  999.0,   -0.9,  999.0,  999.0,  999.0,   -0.5
2000/12/21 05:40,  999.0,  999.0,  999.0,  999.0,  999.0,   -0.2,   -1.3,    1.3,    1.0,    1.5,    1.4,  999.0,  999.0,  999.0,    2.5,    2.6,    3.5,    4.2,    4.1,    4.7,    5.1,    7.0,    5.3,    5.2,    6.6,    6.4,    7.0,    7.3,    8.6,   12.3,  999.0,  999.0,  999.0,  999.0,  999.0,  999.0,  999.0,  999.0,  999.0,  999.0,  999.0,  999.0,  999.0,  999.0,  999.0,  999.0,  999.0,  999.0,  999.0,  999.0,  999.0,  999.0,  999.0,  999.0,  999.0,  999.0,  999.0,  999.0
2000/12/21 05:50,  999.0,  999.0,  999.0,   -0.7,    0.6,    0.5,    1.4,    2.3,   -1.3,    1.4,    2.2,  999.0,    2.7,    2.5,    3.0,    2.9,    3.1,    4.0,    5.2,    5.2,    4.9,    4.9,    5.2,    5.6,    5.4,    5.5,    7.2,    8.7,   11.0,   13.5,  999.0,  999.0,  999.0,   19.6,  999.0,  999.0,  999.0,  999.0,  999.0,  999.0,  999.0,  999.0,  999.0,  999.0,  999.0,  999.0,  999.0,  999.0,  999.0,  999.0,  999.0,  999.0,  999.0,  999.0,  999.0,  999.0,  999.0,  999.0
2000/12/21 06:00,  999.0,   -0.5,    0.6,    1.1,    1.8,    1.4,    1.1,    1.0,    0.5,   -0.9,    1.6,  999.0,    2.4,    2.9,    3.1,    2.5,    3.3,    4.8,    4.6,    4.9,    4.6,    3.6,    4.3,    4.4,    4.7,    5.3,    6.4,    7.6,    9.2,   11.7,  999.0,  999.0,  999.0,  999.0,  999.0,  999.0,  999.0,  999.0,  999.0,  999.0,  999.0,  999.0,  999.0,    5.3,  999.0,  999.0,  999.0,   -0.7,   -1.0,   -0.7,  999.0,   -1.3,   -0.3,  999.0,   -0.8,   -1.1,  999.0,   -0.4
2000/12/21 06:10,  999.0,   -0.1,    0.9,   -0.3,    0.8,    0.9,    1.1,   -0.4,  999.0,    3.0,    2.4,    4.3,    2.9,    2.8,    3.3,    4.5,    5.9,    6.3,    5.0,    5.0,    3.5,    3.2,    3.1,    3.0,    3.6,    4.7,    5.9,    7.9,   10.3,  999.0,  999.0,  999.0,  999.0,  999.0,  999.0,  999.0,  999.0,  999.0,  999.0,  999.0,  999.0,  999.0,  999.0,  999.0,   -0.4,  -28.9,  -21.4,  999.0,  -10.0,   -0.8,   -3.0,   -1.2,  -22.3,  999.0,  -39.5,   -0.6,   -0.6,   -0.3
2000/12/21 06:20,  999.0,    0.5,   -0.3,    1.0,    1.6,    1.1,    1.5,    2.2,    2.6,    4.0,    4.4,    4.0,    2.6,    3.0,    3.4,    4.0,    5.8,    4.8,    4.7,    4.8,    5.5,    6.7,    8.6,    9.6,   11.7,   13.4,   15.4,   17.5,   22.3,  999.0,  999.0,  999.0,  999.0,  999.0,  999.0,  999.0,  999.0,  999.0,   -0.9,  999.0,   -1.1,   -0.6,   -0.5,   -0.9,   -0.8,   -0.9,   -0.9,   -0.6,   -1.1,   -1.1,   -0.6,   -1.4,   -1.1,   -0.7,   -0.5,   -0.6,   -1.0,   -1.1
2000/12/21 06:30,  999.0,    0.3,   -0.0,    0.7,    0.7,   -0.6,    2.9,    1.5,    2.4,    4.8,    5.9,    4.7,    3.3,    3.4,    4.2,    4.8,    5.4,    6.1,    6.8,    5.5,    6.5,    7.1,    8.5,   10.2,   12.2,   13.8,   14.9,   17.6,  999.0,  999.0,  999.0,  999.0,  999.0,  999.0,  999.0,  999.0,  999.0,  999.0,   -0.8,   -0.6,   -1.1,   -0.6,   -0.6,   -0.7,   -0.9,   -0.5,   -0.7,   -0.5,   -0.7,   -0.9,   -0.8,   -0.9,   -1.1,   -0.9,   -0.8,   -0.6,   -0.8,   -1.1
2000/12/21 06:40,  999.0,   -0.2,    0.4,    1.1,    1.3,    0.5,    1.6,    2.5,    4.2,    5.1,    6.0,    3.7,    3.7,    4.9,    5.1,    5.2,    5.6,    6.3,    6.0,    6.0,    7.3,    7.4,    9.3,   10.8,   12.1,   14.2,   14.0,   17.0,  999.0,  999.0,  999.0,  999.0,  999.0,  999.0,  999.0,  999.0,  999.0,   -0.7,   -0.5,   -0.6,   -2.2,   -8.2,   -7.7,   -7.6,   -6.9,   -3.2,   -9.8,  -18.1,   -0.9,   -0.8,   -4.5,  -21.1,  -20.7,   -1.3,  -10.1,  -11.6,   -0.9,   -8.1
2000/12/21 06:50,  999.0,   -0.2,   -0.1,    0.9,    1.8,    1.9,    1.4,    2.0,    3.3,    6.9,    5.2,    4.5,    4.1,    4.2,    4.3,    5.2,    5.6,    6.1,    5.6,    5.9,    7.6,    8.3,   10.7,   12.7,   13.4,   15.2,   17.3,  999.0,  999.0,  999.0,  999.0,  999.0,  999.0,  999.0,  999.0,  999.0,  999.0,  999.0,   -0.7,   -0.7,   -0.9,   -0.2,   -0.6,   -0.5,   -0.9,   -0.6,   -0.8,   -0.9,   -0.5,   -0.3,   -1.0,   -1.0,   -0.6,   -0.8,   -0.5,   -0.7,   -0.9,   -1.0
2000/12/21 07:00,  999.0,   -0.3,    0.0,    0.2,    1.2,    0.9,    1.0,    2.4,    2.9,    4.4,    5.1,    5.3,    4.0,    4.3,    5.3,    5.1,    4.5,    5.5,    6.2,    4.1,    4.0,    5.2,    6.9,    7.0,    9.0,   10.7,   11.7,   11.6,   15.8,  999.0,  999.0,  999.0,  999.0,  999.0,  999.0,  999.0,  999.0,   -0.9,   -0.9,   -1.2,   -0.7,   -0.5,   -0.3,   -0.4,   -0.9,   -0.7,   -0.5,   -0.5,   -0.5,   -0.5,   -0.1,   -0.5,   -0.7,  999.0,   -0.5,   -0.7,   -0.6,   -1.1
2000/12/21 07:10,  999.0,   -0.1,    0.1,    0.3,    0.4,    0.8,    1.9,    1.8,    2.8,    4.0,    4.6,    4.7,    4.3,    4.5,    4.2,    3.1,    2.5,    4.6,    5.9,    4.8,    4.3,    5.8,    7.5,    8.7,   10.6,   12.5,   13.7,  999.0,  999.0,  999.0,  999.0,  999.0,  999.0,  999.0,  999.0,  999.0,  999.0,   -0.8,   -0.7,   -0.1,   -0.5,   -0.6,   -0.5,   -0.8,   -0.8,   -0.7,   -0.7,   -0.8,   -0.5,   -0.9,   -0.8,   -0.8,   -0.8,   -0.8,   -0.6,   -0.6,   -0.8,   -0.8
2000/12/21 07:20,  999.0,   -0.8,    0.7,    0.8,    1.8,  999.0,    0.2,    1.8,    3.3,    3.4,    3.6,    4.1,    4.1,    4.0,    3.8,  999.0,    4.4,    4.5,    5.7,    4.5,    4.6,    5.6,    7.3,    9.5,   12.9,  999.0,  999.0,  999.0,  999.0,  999.0,  999.0,  999.0,  999.0,  999.0,  999.0,  999.0,  999.0,   -1.1,   -0.8,   -0.5,   -0.5,   -0.7,   -1.0,   -0.9,   -0.8,   -0.6,   -0.5,   -0.8,   -1.0,   -0.6,   -0.5,   -0.7,   -1.0,   -0.9,   -0.8,   -0.3,   -0.6,   -0.5
2000/12/21 07:30,  999.0,   -0.5,   -0.2,    0.5,    1.0,   -0.3,   -0.8,    2.1,    4.7,    3.5,    3.5,    3.3,    3.5,    3.8,    3.6,    3.3,    2.9,    4.2,    5.3,    5.6,    5.7,    5.6,    6.3,  999.0,  999.0,  999.0,  999.0,  999.0,  999.0,  999.0,  999.0,  999.0,  999.0,  999.0,  999.0,  999.0,   -0.1,   -0.9,   -0.8,   -0.7,  999.0,   -1.2,   -0.4,   -0.9,   -0.2,   -0.9,   -0.9,   -0.7,   -0.9,   -0.5,   -0.6,   -0.5,   -0.5,   -0.7,   -0.8,   -0.6,   -0.7,   -0.9
2000/12/21 07:40,  999.0,   -0.6,   -0.0,    1.0,    0.8,   -0.1,    1.7,    3.5,    4.8,    3.8,    3.8,    3.4,    3.8,    4.0,    3.5,    2.7,    4.9,    6.5,    6.7,    7.4,    7.6,    7.6,  999.0,  999.0,  999.0,  999.0,  999.0,  999.0,  999.0,  999.0,  999.0,  999.0,  999.0,  999.0,  999.0,  999.0,   -0.7,   -0.5,   -0.6,   -0.6,   -0.7,  999.0,   -0.6,   -0.8,   -0.8,   -0.9,   -0.7,   -0.8,   -1.1,   -1.0,   -0.4,   -0.6,   -0.8,   -0.7,   -0.6,   -0.7,   -0.9,   -0.8
2000/12/21 07:50,  999.0,    0.2,    0.1,    0.3,    1.4,  999.0,    1.2,    2.5,    3.6,    3.6,    3.9,    3.7,    3.3,    3.6,    3.8,    3.8,    5.1,    6.2,    6.8,    5.8,    7.3,    5.0,    3.1,    3.1,    6.8,    6.3,   14.0,   14.1,  999.0,  999.0,  999.0,  999.0,   41.5,   41.7,  999.0,   42.4,    2.0,   18.6,   -7.3,  999.0,    4.3,   20.3,   10.3,   22.4,   11.7,   12.5,  999.0,   11.7,   13.4,   17.6,   11.2,   18.8,    9.3,  999.0,   -1.4,   -0.7,   -1.2,    0.3
2000/12/21 08:00,  999.0,   -0.2,    0.3,    1.1,    2.5,    0.4,    3.1,    2.5,    3.7,    4.3,    3.9,    3.9,    3.6,    3.5,    3.6,    3.6,    4.7,    5.7,    6.4,    6.2,    7.2,    4.9,    5.6,    6.4,    7.3,  999.0,  999.0,  999.0,  999.0,  999.0,  999.0,  999.0,  999.0,  999.0,  999.0,  999.0,  999.0,  999.0,  999.0,  999.0,   19.1,  999.0,   20.7,  999.0,  999.0,  999.0,  999.0,   25.1,   11.4,   11.6,   23.7,  999.0,  999.0,   -0.3,   -0.7,   -0.7,   -0.0,   -0.6
2000/12/21 08:10,  999.0,    0.3,    2.0,    0.3,    1.6,    0.2,    0.1,    1.8,    3.6,    3.7,    3.1,    3.4,    3.3,    3.2,    3.3,    3.8,    5.2,    7.2,    6.2,  999.0,   13.3,   15.5,   15.0,   12.5,   12.8,  999.0,  999.0,   14.8,  999.0,  999.0,  999.0,  999.0,  999.0,  999.0,  999.0,  999.0,  999.0,  999.0,  999.0,  999.0,  999.0,  999.0,  999.0,   -1.5,  999.0,  999.0,  -14.1,   -3.7,  -13.7,  999.0,  -11.3,  999.0,   -1.3,   -1.8,   -1.0,  -41.0,  -10.8,  -21.4
2000/12/21 08:20,  999.0,   -0.7,    0.3,    0.8,   -0.5,   -0.9,    0.7,    2.2,    2.8,    3.3,    3.1,    3.0,    3.1,    2.6,    2.7,    3.4,    4.2,    6.4,    7.5,    8.5,    8.7,  999.0,    8.6,    9.7,   10.8,   11.9,   13.8,  999.0,  999.0,  999.0,  999.0,  999.0,  999.0,  999.0,  999.0,  999.0,  999.0,  999.0,  999.0,  999.0,  999.0,  999.0,  999.0,  999.0,  999.0,  999.0,   -0.6,   -0.2,   -1.0,   -1.6,   -0.9,   -1.1,   -0.3,   -1.0,   -0.9,   -0.9,   -1.3,   -0.6
2000/12/21 08:30,  999.0,   -1.8,   -0.2,    1.2,   -2.0,  999.0,    1.2,    2.8,    2.9,    3.0,    3.9,    1.3,    2.6,    2.6,    3.0,    3.4,    3.9,    5.7,  999.0,  999.0,  999.0,  999.0,    8.3,    9.7,   11.1,   12.4,   13.4,  999.0,  999.0,  999.0,  999.0,  999.0,  999.0,  999.0,  999.0,  999.0,  999.0,  999.0,  999.0,  999.0,  999.0,  999.0,  999.0,   -0.2,   -0.9,  999.0,   -0.8,   -0.8,   -0.6,  999.0,   -0.4,   -0.8,   -0.4,   -0.3,   -0.5,  999.0,   -0.6,  999.0
2000/12/21 08:40,  999.0,  999.0,    0.5,    2.5,    2.0,    1.8,    2.7,    3.5,    3.3,    3.5,    3.7,    3.2,    2.6,    2.5,    2.7,    3.3,    3.7,    4.2,    8.6,    8.3,  999.0,    7.9,    7.4,    8.0,    8.3,    8.8,   13.3,  999.0,  999.0,  999.0,  999.0,  999.0,  999.0,  999.0,  999.0,  999.0,  999.0,  999.0,  999.0,  999.0,  999.0,  999.0,   -0.3,   -0.3,  999.0,  999.0,   -9.5,    9.3,   17.0,   -3.5,   41.5,   -2.4,    9.0,   10.1,   20.5,   -0.9,   -0.8,   10.0
2000/12/21 08:50,  999.0,   -0.3,   -0.5,    1.5,    0.3,    2.4,    1.2,    3.2,    4.4,    4.7,    3.8,    3.8,    3.4,    3.0,    2.8,    3.0,    2.6,    4.5,    5.7,    6.7,  999.0,  999.0,    4.8,    5.3,    6.4,    7.1,    9.2,   12.5,  999.0,  999.0,  999.0,  999.0,  999.0,  999.0,  999.0,  999.0,  999.0,  999.0,  999.0,  999.0,  999.0,  999.0,  999.0,   -0.3,   -0.7,  999.0,   -0.1,    0.2,   -0.5,   -1.1,   -1.3,   -1.3,   -1.4,   -0.5,   -1.0,   -0.8,   -0.9,    0.0
2000/12/21 09:00,  999.0,  999.0,  999.0,   -0.0,  999.0,    1.7,    2.2,    3.9,    4.2,    4.9,    3.1,    3.1,    2.7,    2.7,    2.3,    1.9,    3.1,    4.9,    5.9,    6.5,    5.5,    6.0,    5.0,    5.8,    5.5,    5.8,    6.1,    6.5,    7.8,  999.0,  999.0,  999.0,  999.0,  999.0,  999.0,  999.0,  999.0,  999.0,  999.0,  999.0,  999.0,  999.0,  999.0,  999.0,  999.0,  999.0,  999.0,  999.0,  999.0,   -0.3,   -1.1,   -0.8,   -1.3,    0.3,   -0.5,   -0.6,   -0.4,   -0.7
2000/12/21 09:10,  999.0,    0.1,   -0.2,   -0.5,    1.5,    2.6,    3.2,    3.9,    4.0,    3.7,    3.3,    3.0,    2.6,    2.7,    2.5,    2.1,    4.6,    5.8,    6.2,    6.1,    4.8,    4.3,    4.2,    4.4,    4.8,    6.1,    7.5,    8.8,   11.0,  999.0,  999.0,  999.0,  999.0,  999.0,  999.0,  999.0,  999.0,  999.0,  999.0,  999.0,  999.0,  999.0,  999.0,  999.0,  999.0,  999.0,  999.0,  999.0,  999.0,  999.0,   -0.4,  999.0,   -1.2,   -1.1,  999.0,   -0.7,   -0.7,   -1.0
2000/12/21 09:20,  999.0,  999.0,   -2.6,    1.3,    1.2,    2.3,    2.7,    3.6,    4.4,    3.7,    3.4,    3.4,    2.7,    2.4,    2.2,    3.1,    4.3,    5.3,    6.4,    6.1,    4.2,    3.9,    3.9,    4.2,    4.8,    4.3,    5.0,    6.8,  999.0,  999.0,  999.0,  999.0,  999.0,  999.0,  999.0,  999.0,  999.0,  999.0,  999.0,  999.0,  999.0,  999.0,  999.0,  999.0,  999.0,  999.0,  999.0,   -1.4,   -0.5,   -0.2,   -0.6,   -0.6,   -0.7,   -0.7,   -0.7,   -0.9,   -0.6,   -0.6
2000/12/21 09:30,  999.0,   -0.3,   -0.3,   -0.6,    1.7,    1.1,    1.2,    3.5,    4.0,    3.5,    3.5,    3.2,    2.8,    2.3,    2.2,    3.5,    4.8,    5.8,    6.0,    5.4,    4.2,    3.8,    3.9,    4.2,    3.4,    4.1,    5.1,    7.0,    9.2,  999.0,  999.0,  999.0,  999.0,  999.0,  999.0,  999.0,  999.0,  999.0,  999.0,   -4.3,  999.0,   -1.9,   -0.8,   -1.1,   -0.6,  999.0,   -0.5,   -0.7,   -0.9,   -0.5,   -0.7,   -0.7,   -0.2,   -0.4,   -0.4,   -1.0,   -0.6,   -0.6
2000/12/21 09:40,  999.0,   -0.2,   -0.1,    3.1,    0.2,    0.4,    1.9,    2.8,    3.6,    3.3,    2.2,    2.1,    2.6,    1.3,    1.9,    2.0,    1.4,    4.7,    4.5,    2.2,    4.0,   -1.6,    4.3,    4.3,    4.3,    4.4,    5.3,    7.0,  999.0,  999.0,  999.0,  999.0,  999.0,  999.0,  999.0,    4.4,  999.0,  999.0,  999.0,   -2.3,  999.0,  -14.1,   -1.5,   -0.4,   -0.9,   -9.5,   -0.9,   -0.3,  999.0,  -13.2,   -1.1,   -0.9,   -0.5,   -0.9,    0.2,  -13.9,   -0.8,   -7.9
2000/12/21 09:50,  999.0,  999.0,  999.0,    1.1,   -1.0,    1.0,    2.2,    3.4,    3.4,    3.3,    2.8,    2.7,    3.3,    2.8,    2.9,    4.0,    5.2,    5.4,  999.0,    5.2,    5.2,    4.1,    4.1,    4.5,    4.6,    4.9,    8.1,  999.0,  999.0,  999.0,  999.0,  999.0,  999.0,  999.0,  999.0,  999.0,  999.0,   -1.6,  999.0,   -3.9,   -1.0,   -1.9,   -0.5,   -0.6,   -0.8,   -0.9,   -0.9,   -0.6,   -0.5,   -0.3,   -0.9,   -1.1,   -0.4,   -0.8,   -0.9,   -0.7,   -0.9,   -0.5
2000/12/21 10:00,  999.0,   -0.5,   -0.5,    0.8,   -0.7,    0.7,    2.3,    3.0,    3.6,    3.4,    2.6,    2.5,    2.8,    2.3,    2.8,    3.9,    4.0,    4.4,    5.4,    5.4,    5.3,    4.4,    4.3,    3.4,    3.3,    3.5,    6.0,  999.0,  999.0,  999.0,  999.0,  999.0,  999.0,  999.0,  999.0,  999.0,   -3.6,   -6.6,   -5.2,   -4.3,   -4.9,   -2.2,   -2.8,   -0.7,   -0.6,   -1.0,   -0.5,  999.0,   -0.5,   -0.2,   -0.7,   -0.8,   -0.8,   -0.4,   -0.7,   -1.2,   -0.4,   -1.0
2000/12/21 10:10,  999.0,    1.4,    1.6,    0.1,   -3.2,    1.1,    2.1,    2.4,    2.6,    2.7,    2.8,    3.6,    2.7,    2.8,    3.3,    4.3,    4.6,    5.3,  999.0,    7.0,    5.7,    6.1,    6.4,    6.3,    7.7,    9.7,  999.0,  999.0,  999.0,  999.0,  999.0,  999.0,  999.0,    8.6,  999.0,  999.0,   -8.2,   -7.2,   -5.9,   -5.9,   -6.6,  999.0,   -3.7,   -3.2,   -2.4,   -1.5,   -1.2,   -1.2,   -1.1,   -0.7,   -0.6,    0.0,   -0.8,   -0.9,    0.0,   -0.6,   -0.1,   -1.4
2000/12/21 10:20,  999.0,    1.4,    1.0,    2.0,    1.2,    1.4,    0.9,    1.4,    2.3,    2.6,    3.1,    3.9,  999.0,    2.2,    3.0,    4.5,    4.9,    4.8,    5.4,    5.8,    4.9,    4.6,    5.2,    5.7,    7.4,    9.4,   11.4,  999.0,  999.0,  999.0,    8.4,   10.4,  999.0,  999.0,  999.0,    7.6,  999.0,  999.0,  999.0,   41.4,  999.0,  999.0,   20.0,   41.2,    9.9,   20.3,   20.7,   -0.7,   -0.7,    9.7,    5.8,   -0.5,   -0.5,   -1.0,   -0.9,    6.4,    9.9,    6.2
2000/12/21 10:30,  999.0,    1.4,    1.1,    2.3,    0.9,    0.2,    0.5,    1.2,    2.5,    3.1,    3.2,    3.3,  999.0,    0.3,    2.4,    3.2,    4.5,    4.6,    4.5,    5.3,    6.2,    4.3,    4.1,    4.0,    5.9,    6.9,    9.1,  999.0,  999.0,  999.0,  999.0,  999.0,  999.0,  999.0,  999.0,  999.0,  999.0,  999.0,  999.0,  999.0,  999.0,  999.0,   -0.9,   -0.9,   -1.2,   -0.9,   -0.9,   -0.5,   -0.6,   -0.9,   -0.9,   -0.5,   -0.6,   -0.8,   -0.7,   -0.7,   -1.3,   -1.1
2000/12/21 10:40,  999.0,    2.1,    0.9,    0.1,    0.7,    0.3,    1.2,    2.7,    2.7,    3.1,    3.1,    3.2,  999.0,    0.9,    2.0,    3.1,    4.5,    4.5,    4.0,    4.7,    5.3,    3.7,    2.9,    4.0,    6.1,    8.1,    9.1,  999.0,  999.0,  999.0,  999.0,  999.0,  999.0,  999.0,  999.0,  999.0,  999.0,  999.0,  999.0,   -0.3,   -0.7,   -0.0,   -0.9,   -0.4,   -0.5,   -0.6,   -0.6,   -1.0,   -0.8,   -0.5,   -0.9,   -0.6,   -0.6,   -0.6,   -0.9,   -0.4,   -0.3,   -0.5
2000/12/21 10:50,  999.0,    0.9,    2.0,    2.7,    2.0,    1.2,    1.7,    2.6,    2.2,    2.2,    2.1,    2.7,  999.0,    1.6,    2.3,    3.3,    3.5,    3.3,    3.9,    4.3,    4.6,    3.8,    3.2,    3.8,    4.8,    7.0,    8.4,  999.0,  999.0,  999.0,  999.0,    6.6,  999.0,  999.0,  999.0,  999.0,  999.0,  999.0,   -2.3,  999.0,   -1.1,   -0.7,   -0.6,   -0.9,   -1.1,   -0.2,  999.0,   -1.0,   -0.5,   -0.9,   -0.7,   -0.6,   -1.4,   -0.8,   -1.0,   -0.9,   -1.6,   -0.9
2000/12/21 11:00,  999.0,    0.5,    1.1,    2.2,    1.9,    1.7,    0.9,    1.7,    2.4,    2.5,    2.1,    1.7,    0.7,    1.9,    3.1,    3.5,    3.7,    1.1,    4.8,    5.6,    3.1,    6.7,    6.8,    6.6,    7.6,    6.2,  999.0,  999.0,  999.0,  999.0,  999.0,  999.0,  999.0,  999.0,  999.0,  999.0,  999.0,   -1.1,   -0.7,   -0.7,  999.0,   -0.8,   -0.4,   -0.6,   -0.9,   -0.6,   -0.9,   -0.6,   -0.8,   -0.6,   -0.7,   -0.8,   -0.6,   -0.9,   -0.3,   -0.8,   -1.0,   -0.3
2000/12/21 11:10,  999.0,    2.1,    1.5,    2.3,    2.7,    0.0,    1.5,    1.8,    2.1,    2.1,    2.0,    0.1,    0.8,    1.5,    4.3,  999.0,  999.0,    4.5,    5.6,    7.4,    3.9,    7.8,    8.6,   12.3,   13.9,  999.0,  999.0,  999.0,  999.0,  999.0,  999.0,  999.0,  999.0,  999.0,  999.0,  999.0,  999.0,  999.0,  999.0,   -1.6,   -0.7,   -0.6,  999.0,   -0.9,   -1.1,   -1.1,   -0.6,   -0.1,   -0.9,   -1.5,  999.0,    0.2,   -0.3,   -0.5,   -0.8,   -0.8,   -0.8,   -0.9
2000/12/21 11:20,  999.0,    1.7,    1.7,    1.6,    2.6,    1.8,    4.4,    4.0,    2.3,    2.2,    1.2,    1.2,    0.9,    3.3,    0.9,    4.9,    4.0,    4.4,    6.8,  999.0,  999.0,   10.3,   10.9,   12.5,   14.5,  999.0,  999.0,    9.9,  999.0,  999.0,  999.0,  999.0,  999.0,  999.0,  999.0,  999.0,  999.0,    5.5,   -0.3,   -0.6,   -0.5,   -1.0,   -1.0,   -1.2,   -0.7,   -0.7,   -0.5,   -0.5,   -0.1,   -0.6,   -0.5,   -0.8,   -0.2,   -0.5,   -0.3,   -0.9,   -0.9,   -0.4
2000/12/21 11:30,  999.0,    2.0,    1.9,    4.1,    2.4,    1.7,    2.0,    2.4,    1.7,    2.6,   -1.5,    0.6,    1.3,    2.2,    4.2,  999.0,    6.6,    8.1,  999.0,  999.0,   10.8,   11.6,   12.4,   11.9,   13.8,   15.5,   16.5,   17.2,  999.0,  999.0,  999.0,  999.0,  999.0,  999.0,  999.0,  999.0,  999.0,  999.0,  999.0,  999.0,  999.0,   -0.5,   -1.3,  999.0,  999.0,   -0.6,   -0.5,   -1.2,   -0.7,   -1.1,  999.0,   -0.9,   -0.5,   -1.1,  999.0,   -1.2,  999.0,   -1.1
2000/12/21 11:40,  999.0,    2.1,    1.5,    3.2,    0.2,    4.1,    3.5,    1.7,    1.0,    2.2,    2.4,    1.2,    3.7,    4.6,    4.5,  999.0,    5.0,    5.2,  999.0,  999.0,  999.0,   11.9,   15.5,  999.0,  999.0,  999.0,  999.0,  999.0,  999.0,  999.0,  999.0,  999.0,  999.0,  999.0,  999.0,  999.0,  999.0,   -0.7,   -0.7,   -0.5,   -0.7,   -0.8,   -1.2,   -0.8,   -2.3,   -3.0,   -0.5,   -0.6,   -3.7,   -3.7,   -1.4,   -0.6,   -0.6,   -0.4,   -1.1,   -1.1,   -0.9,   -0.5
2000/12/21 11:50,  999.0,    0.6,    1.5,    2.3,    2.5,    3.0,    3.3,    3.0,    1.9,   -1.1,    2.8,    3.4,    2.4,    3.5,    4.2,    4.1,    4.9,    6.0,    6.5,    7.9,  999.0,  999.0,    5.6,  999.0,  999.0,  999.0,  999.0,  999.0,  999.0,  999.0,  999.0,  999.0,  999.0,  999.0,  999.0,  999.0,  999.0,   -0.9,   -0.5,   -0.2,   -0.7,   -0.7,   -0.6,   -0.5,   -0.5,   -0.5,   -2.5,   -0.7,   -0.4,   -0.3,   -0.3,   -0.6,   -0.9,   -0.9,   -0.9,    0.2,  999.0,   -0.8
2000/12/21 12:00,  999.0,    2.6,    0.3,    1.0,    1.4,    2.7,    3.7,    2.4,    2.5,    2.1,  999.0,  999.0,  999.0,    3.5,    3.9,    4.6,    6.0,    7.5,    7.8,  999.0,  999.0,  999.0,  999.0,  999.0,   15.4,   18.3,  999.0,  999.0,   23.0,   24.7,  999.0,  999.0,  999.0,  999.0,  999.0,  999.0,   -0.6,   -0.4,   -0.8,   -0.6,   -0.7,   13.7,  999.0,   -1.1,   -0.2,   -0.4,   11.8,    5.3,   -1.4,  999.0,   -0.7,  999.0,   -0.9,  999.0,   -0.1,   -0.7,   -1.2,  999.0
2000/12/21 12:10,  999.0,   -0.3,    1.0,    2.4,    3.4,    4.5,    4.4,    2.5,    1.4,    0.9,    3.0,    2.4,    5.5,    5.9,    6.1,    6.5,    7.2,    7.6,    7.2,    5.8,    4.1,    4.5,    3.3,    4.9,    8.6,   10.2,    4.9,   11.0,   12.3,   10.1,   11.9,   14.0,   18.7,   20.4,  999.0,  999.0,  999.0,  999.0,  999.0,  999.0,  999.0,   28.0,   28.0,  999.0,  999.0,  999.0,   24.0,   24.1,  999.0,  999.0,  999.0,  999.0,  999.0,  999.0,  999.0,  999.0,  999.0,    6.6
2000/12/21 12:20,  999.0,    7.3,    1.2,    5.0,    7.1,    4.8,    5.6,    2.1,    0.6,    0.7,   -0.3,    4.2,    2.3,    2.9,    2.8,    4.2,    4.4,    4.2,    6.0,    7.5,   11.6,   11.4,   11.2,   16.6,    7.2,    7.3,    6.1,    8.9,   10.9,   14.9,   22.1,   19.9,   19.4,   13.8,   11.1,   10.3,    2.1,    7.1,    6.7,    5.4,    6.5,   12.1,   15.2,   10.5,   12.1,   15.1,    8.4,   -0.9,  999.0,  999.0,  999.0,  999.0,   -0.1,   -1.0,   -0.1,   -0.5,   -0.9,   -1.0
2000/12/21 12:30,  999.0,    4.5,    4.6,    4.8,    6.0,    4.0,    4.9,    4.9,    5.7,    7.4,    8.4,    8.4,    8.5,    8.6,    7.6,    6.8,    6.8,    6.6,    5.6,    5.3,    6.1,    4.9,    6.6,    5.0,    5.0,    4.6,    0.7,    0.2,   -0.2,    2.1,    2.6,    3.7,    5.3,    6.6,    8.3,    8.5,    9.9,   14.2,   11.3,   19.3,   13.8,   11.0,    7.8,    9.7,    4.1,    4.9,    6.9,   12.8,   12.2,   13.7,  999.0,  999.0,  999.0,  999.0,  999.0,  999.0,  999.0,  999.0
2000/12/21 12:40,  999.0,    2.5,   -1.3,   12.0,   14.2,   14.9,   11.9,   12.8,   14.4,   12.7,   12.4,   13.8,    9.6,   13.4,   16.6,   14.5,   12.0,   12.8,   13.1,   13.1,    6.5,    3.1,    2.7,    3.9,    3.6,    2.9,   -1.2,    3.6,    7.1,   14.5,   11.4,   13.2,   16.6,   10.7,   11.7,   12.1,   16.8,   12.4,   13.6,   13.9,   20.5,   21.4,   17.2,   19.4,   25.0,   27.8,   24.2,   24.6,   25.7,  999.0,  999.0,  999.0,  999.0,  999.0,  999.0,  999.0,  999.0,  999.0
2000/12/21 12:50,   20.3,   21.1,   19.1,   17.8,   17.3,   17.1,   17.6,   19.9,   21.5,   20.3,   21.2,   19.8,   18.4,   17.6,   19.4,   23.0,   24.5,   24.6,   24.9,   25.4,   25.6,   25.8,   25.7,   24.2,   24.8,   25.7,  999.0,  999.0,   23.9,   24.8,   25.9,  999.0,  999.0,  999.0,  999.0,  999.0,   26.9,   27.5,  999.0,  999.0,   26.8,  999.0,  999.0,   27.8,   26.6,  999.0,   25.1,   24.6,   24.3,  999.0,   21.3,  999.0,  999.0,  999.0,  999.0,  999.0,  999.0,  999.0
2000/12/21 13:00,   24.9,   25.1,   24.8,   24.3,   23.8,   24.0,   23.7,   24.3,   24.7,   24.7,   25.1,   25.4,   25.6,   25.9,   25.9,   25.6,   26.4,   26.6,   26.2,   24.8,   24.5,   25.0,   24.5,   24.7,   24.8,   24.1,   23.7,   25.8,   24.6,   24.9,  999.0,   26.1,   27.4,  999.0,  999.0,  999.0,  999.0,  999.0,  999.0,  999.0,  999.0,  999.0,   24.1,  999.0,  999.0,  999.0,   24.3,   24.5,   26.2,  999.0,  999.0,  999.0,  999.0,  999.0,  999.0,  999.0,  999.0,  999.0
2000/12/21 13:10,   21.6,   19.1,   18.2,   20.9,   18.6,   17.9,   20.5,   20.2,   20.5,   21.9,   21.5,   22.1,   24.5,   26.4,   26.8,   26.0,   26.2,   26.8,   25.8,   25.4,   23.4,   22.3,   23.1,   22.9,   23.2,   23.1,   22.0,   21.4,   22.5,   23.1,   24.4,   26.7,   25.2,   25.5,   28.6,  999.0,  999.0,  999.0,  999.0,  999.0,  999.0,  999.0,  999.0,  999.0,  999.0,  999.0,   24.6,   25.1,  999.0,  999.0,  999.0,  999.0,  999.0,  999.0,   -0.3,  999.0,   -0.4,   -0.8
2000/12/21 13:20,   23.5,   18.0,   20.2,   18.7,   21.9,   20.4,   19.8,   16.4,   21.9,   21.2,   21.7,   22.5,   20.4,   19.4,   19.6,   20.7,   23.0,   25.7,   24.9,   23.4,   23.2,   22.6,   23.3,   24.0,   24.6,   24.7,   24.3,   23.7,   25.9,   23.4,  999.0,  999.0,  999.0,   26.3,  999.0,  999.0,  999.0,  999.0,  999.0,  999.0,  999.0,  999.0,  999.0,   40.8,  999.0,  999.0,   41.4,   26.4,  999.0,   41.4,   42.0,   41.3,   20.6,  999.0,   -0.8,   -0.5,   -1.3,   -0.9
2000/12/21 13:30,  999.0,    5.6,    2.9,    4.2,    3.8,    5.1,    4.9,    4.6,    4.5,    4.1,    4.5,    5.8,    4.2,    4.2,    2.7,    3.5,    0.9,   -7.3,   -8.4,  -10.0,   -4.8,   -3.6,   -7.0,   -7.9,    1.7,  -18.0,  999.0,  -17.5,    5.0,  -15.9,  999.0,   -0.4,  999.0,  -10.5,  999.0,    0.7,    0.5,  999.0,  999.0,    0.9,  999.0,  999.0,    0.9,  999.0,    1.4,  999.0,  999.0,    1.3,    1.0,  999.0,  -20.6,    0.5,  999.0,  -41.7,   -9.7,  999.0,  -42.1,    0.4
2000/12/21 13:40,  999.0,    3.2,    3.2,    2.9,    3.0,    2.7,    2.8,    4.5,    4.2,    4.1,    3.8,    3.4,    3.4,    3.3,    2.2,    1.0,    0.3,    0.7,    4.1,    6.4,    5.3,    4.3,    4.9,    1.8,    2.5,    4.5,   -1.1,   -3.7,   -9.3,  -11.5,   -7.0,   -8.7,   -9.7,  -12.9,  -42.1,  -16.0,  -42.4,  -35.5,  -17.1,  -18.0,    5.8,  -40.0,  -40.8,  -34.5,  -41.8,  -41.6,  -20.3,  -31.3,  999.0,    0.5,    0.7,  -41.8,  -20.4,  -42.2,  -41.0,  -20.6,  -41.4,  999.0
2000/12/21 13:50,  999.0,    6.5,    2.4,    3.0,    3.8,    5.5,    5.3,    4.7,    5.2,    4.8,    4.3,    4.4,    3.9,    2.7,    2.2,    3.8,    5.1,    4.5,    4.5,    4.2,    5.2,    4.6,    1.8,    0.2,   -2.2,   -2.6,   -3.8,   -2.7,   -3.8,  999.0,  999.0,   -0.8,  999.0,  999.0,  999.0,  -12.2,    4.6,    3.2,  999.0,  -15.1,  -15.5,  -15.4,  -15.5,  -15.1,  -15.0,  -14.8,  999.0,  999.0,  999.0,  -16.1,  999.0,  999.0,  999.0,  999.0,    0.8,  999.0,  999.0,  -42.0
2000/12/21 14:00,  999.0,    6.9,    2.7,    1.9,    5.5,    5.9,    5.6,    5.2,    4.9,    5.2,    5.1,    5.3,    4.8,    4.4,    4.3,    4.0,    4.2,    3.9,    3.3,    3.5,    2.3,    1.4,   -0.4,   -8.7,  999.0,   -0.8,  999.0,   -3.8,   -5.3,   -5.8,  999.0,   -6.8,   -7.8,   -8.3,   -2.9,   -4.0,   -2.5,   19.9,  -15.8,   -4.3,  -11.1,   -3.3,   -3.1,   -7.5,  -11.9,  -14.4,  999.0,  -15.2,  999.0,  -17.0,  -18.8,   17.2,  999.0,  999.0,  999.0,  999.0,  999.0,  -28.4
2000/12/21 14:10,  999.0,    9.1,    5.3,    6.0,    5.9,    6.2,    6.0,    5.4,    5.0,    5.0,    4.5,    3.9,    3.4,    3.0,    2.9,    3.6,    4.0,    3.8,    3.7,    4.1,    3.9,    4.1,    4.8,    6.0,    7.5,    5.3,    6.8,  999.0,  999.0,   13.9,   10.9,    8.9,   -0.4,    0.0,   -0.3,    0.4,   -1.0,   14.9,   15.4,   15.7,   10.4,   15.4,   15.1,   13.7,    5.2,    5.1,  -13.9,    3.8,    4.2,    3.8,  999.0,  999.0,    6.0,    6.1,  -13.1,  999.0,  999.0,   -0.6
2000/12/21 14:20,  999.0,    5.8,    5.2,    3.4,    4.8,    5.4,    6.4,    6.2,    5.4,    4.9,    4.1,    4.3,    4.4,    4.6,    5.2,    5.2,    5.0,    4.9,    4.4,    4.3,    4.2,    4.6,    5.2,    6.1,    7.3,    7.6,    9.4,   13.7,   10.9,   17.4,   14.6,  999.0,   22.9,  999.0,   25.0,   25.9,  999.0,   25.0,   25.9,   25.9,   25.6,   26.8,   26.7,   26.6,   27.0,   26.3,   28.8,  999.0,   25.4,  999.0,  999.0,   24.3,  999.0,  999.0,  999.0,  999.0,  999.0,  999.0
2000/12/21 14:30,  999.0,    6.2,    6.8,    6.1,    5.7,    6.0,    6.2,    6.0,    5.1,    4.8,    4.5,    3.8,    4.0,    4.1,    4.6,    4.9,    4.7,    4.6,    3.5,    1.7,    0.9,   -0.1,   -1.5,   -2.6,   -3.4,   -3.6,   -4.0,   -4.5,   -4.9,   -5.0,   -5.1,   -5.5,   -6.4,   -7.5,  999.0,  -10.5,  999.0,  -12.6,  999.0,  -14.5,  -14.4,  -14.3,  -15.2,  -15.7,  -15.6,  999.0,  999.0,  999.0,  -16.6,  -16.7,  -17.5,  -17.0,  -17.7,  -16.9,  -18.8,  -18.8,  999.0,  999.0
2000/12/21 14:40,  999.0,    5.5,    6.4,    6.9,    7.7,    7.5,    6.6,    6.9,    6.3,    5.7,    5.0,    4.8,    4.6,    4.0,    3.8,    4.0,    3.8,    3.1,    2.8,    2.8,    3.2,    3.2,    2.6,    1.6,    0.9,    0.4,  999.0,   -0.9,   -2.3,   -2.6,   -4.6,   -3.2,   -4.7,   -4.3,   -4.0,  999.0,  999.0,  -12.0,    1.3,   -3.3,    5.7,    4.9,  -15.2,    1.9,    2.6,   -0.0,    0.7,    0.8,    0.7,    0.7,    1.1,   -8.3,   -8.2,  -16.8,  -17.5,    0.6,    0.8,    0.7
2000/12/21 14:50,  999.0,    5.6,    7.3,    8.4,    9.0,    8.7,    7.2,    6.7,    6.6,    7.1,    6.7,    6.8,    5.2,    4.8,    4.7,    4.8,    4.2,    4.4,    3.5,    3.7,    4.0,    3.9,    3.1,  999.0,    0.3,  999.0,   -3.9,   -4.7,   -6.4,  999.0,  -13.3,  999.0,  999.0,  999.0,  999.0,  999.0,  999.0,  999.0,   -0.3,    0.4,  -14.0,  -20.6,  -13.5,  -13.4,  -13.6,  999.0,    0.8,    1.0,  -20.2,    0.6,    1.4,  -20.5,    1.0,  -13.6,  -13.5,    0.8,    0.8,    0.8
2000/12/21 15:00,  999.0,    5.9,    5.2,    6.3,    8.1,    8.6,    8.7,    8.7,    7.8,    7.0,    6.8,    5.9,    4.8,    5.0,    5.2,    4.7,    4.3,    2.9,    2.8,    2.1,    1.0,   -1.0,   -1.9,  999.0,   -5.8,   -4.3,   -4.5,   -5.5,   -9.2,  999.0,  999.0,  999.0,  999.0,  999.0,  999.0,  999.0,    0.1,    0.8,    1.0,    0.7,    0.6,    0.5,    0.9,    1.2,    0.6,    0.9,   -0.7,    0.8,  999.0,    0.7,    0.8,    0.8,    0.9,    0.7,    1.0,    0.7,    0.7,    0.9
2000/12/21 15:10,  999.0,    8.3,    7.4,    6.5,    6.6,    8.1,    7.5,    7.0,    7.5,    8.4,    8.9,    9.2,    9.6,    7.3,    8.7,    7.1,    6.7,   10.0,    9.2,    8.8,   10.6,    0.0,    1.4,    0.2,    2.1,   11.9,   10.9,    9.9,    8.5,   -2.2,  999.0,  999.0,  999.0,  999.0,  999.0,   28.0,   17.7,   21.4,    0.7,    9.5,  999.0,    0.4,    0.3,    0.5,    0.9,   10.3,   34.9,  999.0,    0.4,    0.4,   33.9,    3.8,  999.0,  999.0,   16.2,    0.3,  999.0,   -0.4
2000/12/21 15:20,  999.0,    5.6,    6.5,    5.9,    5.7,    6.0,    5.9,    6.1,    6.2,    6.4,    6.7,    4.1,    5.8,    5.9,    5.7,    5.2,    4.6,    3.8,    3.2,    3.0,    1.3,    1.3,    1.3,    4.2,    2.7,   -1.6,   -4.7,   -4.7,   -6.0,  999.0,  999.0,   -4.7,  999.0,  999.0,    0.4,    0.7,    0.5,    0.7,    0.8,    0.6,    0.2,    1.1,    1.0,    0.4,    0.5,  999.0,  999.0,  999.0,  999.0,  -16.5,  999.0,  999.0,  999.0,  999.0,  999.0,  999.0,  999.0,  -42.1
2000/12/21 15:30,  999.0,    7.4,    5.7,    6.5,    6.0,    6.7,    6.7,    7.3,    7.3,    7.5,    6.4,    3.8,    4.5,    4.3,    4.3,    4.0,    3.0,    2.7,    1.3,    1.0,    4.1,    3.5,   -0.3,    0.2,   -1.3,   -5.3,  999.0,  999.0,  999.0,  999.0,  999.0,    3.9,  999.0,    0.2,    0.5,    0.8,    0.9,    0.6,    1.2,    0.8,    1.2,    0.6,    0.6,    0.7,    0.7,    0.6,    0.5,    0.8,    0.9,    1.0,    0.7,    0.7,  999.0,    0.4,    0.9,    0.4,    0.9,    1.0
2000/12/21 15:40,  999.0,    6.7,    5.8,    6.7,    6.7,    7.0,    7.8,    8.0,    8.0,    8.4,    7.9,    6.8,  999.0,    4.9,    4.4,    4.8,  999.0,    3.9,    4.9,    1.2,    0.7,   -0.6,   -1.1,   -2.7,   -1.6,   -6.8,   -8.2,  999.0,   -7.5,  999.0,  -27.8,  -28.7,   -8.9,   11.8,   -5.0,  999.0,    0.7,    7.6,  -14.7,   -7.2,  999.0,  -12.6,    1.5,  999.0,    0.8,    0.4,    1.1,  -20.6,  -20.7,    0.8,   -9.8,  -42.2,    1.0,  -20.1,  -19.9,    0.5,    0.7,  -20.6
2000/12/21 15:50,  999.0,    0.6,    6.7,    6.7,    7.3,    7.8,    7.2,    7.2,    6.9,    6.6,    4.9,  999.0,  999.0,    4.3,    3.3,    4.8,    6.0,    6.5,    2.8,    2.2,    0.9,   -0.0,   -0.1,   -2.2,   -3.6,  999.0,  999.0,  999.0,  999.0,  999.0,    3.8,    3.0,    3.3,    2.7,    3.1,  999.0,    1.6,  999.0,    0.7,    0.7,    0.9,    0.8,    1.1,    1.2,    0.6,    0.5,    0.6,    0.4,    0.9,    0.9,    0.4,    0.5,    0.7,    0.5,    0.4,    0.8,    0.6,    0.8
2000/12/21 16:00,  999.0,    4.9,    6.0,    8.0,    8.4,    9.0,    8.4,    7.8,    7.0,    7.5,  999.0,  999.0,  999.0,  999.0,  999.0,  999.0,  999.0,  999.0,  999.0,  999.0,   15.1,   15.1,  999.0,  999.0,    9.0,    5.5,    6.4,    4.8,    3.7,    4.3,    5.0,    2.9,    4.2,    1.9,    0.9,    0.9,    0.6,    0.7,    0.4,    0.9,    1.1,    0.9,    0.8,    0.6,    0.8,    0.8,    0.8,    0.5,    0.7,    0.5,    1.1,    0.9,    0.7,    0.7,    0.9,    0.3,    0.6,    0.6
2000/12/21 16:10,  999.0,    4.8,    5.9,    6.6,    6.8,    7.4,    7.5,    7.4,    7.5,    7.5,    6.4,   11.2,  999.0,  999.0,   12.8,  999.0,  999.0,  999.0,  999.0,   16.4,  999.0,   14.4,   11.2,   10.3,    5.2,    6.6,    4.8,    4.4,    3.5,    3.1,    2.6,    1.4,    0.8,    1.0,    0.2,    0.9,    0.6,    0.5,    0.6,    0.5,    0.7,    0.5,    0.9,    0.6,  999.0,    0.5,    0.9,    0.5,    0.6,    1.3,    0.6,    0.7,    0.7,    0.9,    1.0,    0.3,    0.8,    0.8
2000/12/21 16:20,  999.0,  999.0,    4.1,    6.0,    6.8,    7.0,    6.6,    6.0,    6.7,    5.5,    5.7,  999.0,  999.0,  999.0,  999.0,  999.0,  999.0,   -2.7,   16.4,  999.0,    5.9,   -2.9,  999.0,    6.6,    2.2,    8.1,  999.0,    4.5,    4.3,    2.8,    0.7,    1.1,    0.7,    0.6,    0.7,    1.1,    0.6,   -9.8,    0.6,    0.7,  -20.4,   -9.8,    0.9,    0.8,    0.9,    0.4,  999.0,    1.3,    0.7,   -0.3,    0.1,    0.4,    0.6,    1.0,  999.0,    0.7,    0.5,    0.5
2000/12/21 16:30,  999.0,    1.9,    2.8,    5.6,    6.1,    6.2,    5.9,    5.7,    5.8,    4.8,  999.0,  999.0,  999.0,  999.0,  999.0,  999.0,  999.0,  999.0,  999.0,  999.0,   13.5,  999.0,   11.4,    9.1,    8.5,    7.1,    5.2,    3.8,    4.6,    2.4,    0.9,    1.0,    0.6,    0.7,    0.4,    0.4,    0.9,    1.3,    1.1,    0.7,    0.9,    0.7,    0.7,    0.4,    0.8,    1.0,    0.5,  999.0,    0.8,    0.7,    1.1,    0.8,    1.0,    0.7,    0.8,    0.6,    0.5,    0.8
2000/12/21 16:40,  999.0,    0.2,    2.6,    3.6,    4.5,    4.4,    4.5,  999.0,  999.0,   22.0,  999.0,  999.0,   21.3,   21.6,   21.7,  999.0,   17.8,   16.3,   14.8,   13.0,   13.6,   12.0,   10.0,    8.8,    6.9,    5.0,    5.4,    3.6,    0.7,    0.6,    0.4,    0.6,    0.8,    0.3,    0.8,    0.7,    1.0,    1.4,    0.8,    0.8,    1.1,    1.2,    0.5,    0.4,    0.6,    0.9,    1.0,    0.8,    1.0,    0.9,    0.8,    0.6,  999.0,    0.9,    0.9,    0.4,    1.1,    1.3
2000/12/21 16:50,  999.0,    5.8,    6.0,    5.4,   10.3,   11.0,    4.3,  999.0,  999.0,   22.0,  999.0,   21.9,   20.6,  999.0,  999.0,   16.9,   16.9,   15.8,   14.6,   13.4,   11.8,  999.0,    7.8,    6.3,    5.1,    3.2,    1.5,    0.9,    0.7,    0.8,    0.8,    1.1,    0.7,    0.9,    0.5,    0.6,    0.3,    0.8,    0.7,    0.8,    0.4,    0.5,    1.5,    0.5,    0.6,    0.5,  999.0,    1.0,    0.8,    0.7,   -0.0,    0.5,    0.6,    0.9,    0.6,    0.6,    0.6,    0.5
2000/12/21 17:00,  999.0,  999.0,    5.3,   15.6,    4.6,   16.4,   10.7,   21.5,   14.1,   16.3,   17.4,    8.3,   20.7,   20.4,    7.7,   11.9,   12.3,    8.1,  999.0,   14.6,   13.0,   16.1,   15.2,    8.3,    2.6,   -5.7,  -13.9,    2.4,  -10.6,  -11.6,    0.6,    0.9,    0.6,  -10.3,  -20.9,    0.6,   -9.7,  -20.3,  -13.3,  -13.9,  -20.3,    0.5,  -13.8,  -31.1,   -6.6,  -13.1,   -9.8,    1.0,  -20.5,  -41.6,  -20.6,  -19.5,  -18.2,   -4.8,    0.3,    9.5,   10.6,  -11.5
2000/12/21 17:10,  999.0,    8.7,   10.2,   13.0,   10.5,   11.1,   12.9,    0.0,    5.8,   10.9,    4.7,    3.4,    3.4,    9.5,    9.6,    3.3,    2.3,   11.0,    6.6,    5.1,    4.2,   -1.9,    0.1,  999.0,  999.0,    7.8,    6.2,   -0.2,   -1.0,    2.3,    0.9,    1.6,    0.4,   -5.9,    0.9,    0.9,    0.6,  -21.1,  999.0,    0.9,    0.5,   -6.9,  -14.7,  999.0,   -6.9,   -9.1,  -14.3,  999.0,    0.8,    0.9,    0.9,    0.8,  -10.2,   -5.0,  -10.0,    0.8,   -9.4,    0.5
2000/12/21 17:20,  999.0,  999.0,    8.0,    3.3,    3.7,    4.4,    4.9,    5.3,    5.2,    7.9,    3.8,    2.2,    3.3,    3.6,  999.0,    2.6,  999.0,    2.2,   -0.0,  999.0,   -2.4,   -3.8,   -5.9,  999.0,  999.0,    2.4,  999.0,  -11.0,    0.0,    0.2,  999.0,  999.0,    0.5,  999.0,  999.0,    1.0,  999.0,    0.5,    0.7,  999.0,    0.7,  999.0,    0.6,    1.0,    0.8,  999.0,   -0.0,    0.9,    1.4,    0.9,    1.6,    0.8,    1.0,    1.2,    1.0,    0.5,    1.2,    1.6
2000/12/21 17:30,  999.0,  999.0,    4.2,    3.8,    3.7,    3.9,    4.9,    3.6,  999.0,    4.1,    2.7,    0.3,    4.3,    4.3,    4.9,    5.1,    5.4,  999.0,  999.0,  999.0,  999.0,  999.0,  999.0,  999.0,  999.0,  999.0,  999.0,  999.0,  999.0,    0.1,    1.0,    0.5,    0.8,    6.8,   12.3,    0.8,    0.6,    0.1,   20.8,   14.5,   21.4,    1.0,    0.7,    0.4,    0.8,   21.2,   -0.1,   14.2,    0.9,    7.6,    1.2,   -1.7,   -4.6,    6.7,    1.0,    0.4,    7.7,    1.2
2000/12/21 17:40,  999.0,  999.0,  999.0,    4.6,    4.6,    3.8,    3.7,    5.1,  999.0,    4.8,    4.6,    4.0,    4.7,    5.0,    4.0,    1.7,    1.2,  999.0,  999.0,  999.0,   -5.2,  999.0,  999.0,  999.0,    0.1,    1.0,    1.2,    1.0,    0.7,    0.9,    0.5,    0.8,    0.3,    0.8,    0.7,    0.3,    1.2,    0.6,    0.8,    0.4,  999.0,    0.8,    0.6,    1.6,    0.8,    2.0,    0.6,    0.7,    0.7,    0.4,    0.8,    0.8,    1.4,    1.0,    0.5,    0.7,    0.6,    0.4
2000/12/21 17:50,  999.0,  999.0,  999.0,    5.9,    4.0,    3.9,    3.5,    4.6,    5.2,  999.0,    3.6,    3.5,    3.3,    4.0,    4.2,    3.6,    3.6,    3.6,  999.0,  999.0,  999.0,  999.0,  999.0,  999.0,  999.0,  999.0,    0.4,    0.6,    0.6,  999.0,    0.8,    0.2,    1.0,    0.3,    0.7,  999.0,    0.3,    0.3,    0.7,  999.0,    0.9,    0.7,    0.7,    0.7,    0.8,  999.0,  999.0,    0.7,    0.7,    0.3,    0.6,  999.0,    0.9,    0.3,    0.8,    0.5,    0.3,  999.0
2000/12/21 18:00,  999.0,  999.0,  999.0,  999.0,    4.5,    4.3,    5.2,    6.2,    6.3,    6.2,    3.2,    3.8,    3.6,    4.0,    2.5,    1.3,   -0.2,   -3.1,   -4.9,  999.0,  999.0,  999.0,  999.0,  999.0,  999.0,  999.0,    0.6,    0.3,    1.0,    1.1,    0.6,    0.6,    0.9,    0.4,    1.4,    0.8,    1.0,   -0.2,    1.0,    0.8,    0.6,    0.9,    0.8,    0.9,    0.8,    0.7,    0.9,    1.0,    0.8,    1.1,    0.7,    0.8,    1.2,    0.9,    1.1,    1.2,    0.8,    0.8
2000/12/21 18:10,  999.0,  999.0,  999.0,    5.2,    4.0,    3.9,    2.0,    4.2,    4.7,    5.2,    4.0,    1.8,    2.5,    2.7,    2.9,    3.2,  999.0,    2.3,  999.0,  999.0,  999.0,  999.0,  999.0,  999.0,  999.0,  999.0,  999.0,  999.0,    0.5,    0.7,    0.7,    0.5,  999.0,    0.6,    1.3,    1.2,    0.8,    1.3,    0.6,    0.6,    0.2,    1.1,    0.4,  999.0,    0.8,    0.4,    0.6,  999.0,    1.1,    1.1,    0.6,    0.5,    1.0,    1.1,    0.7,    1.1,    1.7,  999.0
2000/12/21 18:20,  999.0,  999.0,  999.0,  999.0,    4.3,    3.5,    3.9,    4.4,    3.4,    3.8,    1.5,  999.0,    2.2,    2.9,    2.7,    3.2,    2.3,    1.0,  999.0,  999.0,  999.0,  999.0,  999.0,  999.0,  999.0,   -2.6,  999.0,    0.6,    1.3,    0.4,    1.6,   -0.2,    0.3,    0.4,  999.0,  999.0,    0.8,    0.6,    0.4,    0.7,   -0.1,  999.0,    0.1,    0.8,    1.1,    0.6,    0.9,    0.2,    0.8,    1.6,  999.0,    0.8,  999.0,  999.0,    1.4,    1.0,  999.0,    0.6
2000/12/21 18:30,  999.0,  999.0,  999.0,    8.4,    5.5,    4.0,    3.8,    2.9,    3.8,    4.1,    3.0,    3.8,    2.5,    1.3,    2.0,    1.6,    2.6,  999.0,  999.0,  999.0,  999.0,  999.0,  999.0,  999.0,  999.0,  999.0,   -3.6,    1.2,  999.0,    0.5,    1.2,    1.1,    0.4,    0.0,    0.8,    0.7,    0.8,    0.7,    1.0,    0.9,    0.5,    0.7,    0.9,    1.0,    1.8,    1.1,    0.2,    0.4,    1.4,    0.2,    1.0,    1.0,    1.3,    1.5,    0.8,    0.9,    0.9,    0.5
2000/12/21 18:40,  999.0,  999.0,  999.0,    4.8,    4.1,    3.8,    3.2,    2.3,    2.4,    2.9,    2.9,    2.6,    2.9,    1.6,    0.5,  999.0,  999.0,    0.3,  999.0,  999.0,  999.0,  999.0,  999.0,  999.0,  999.0,  999.0,    0.4,    0.6,  999.0,    1.2,    0.9,    0.7,    1.0,    1.4,  999.0,    0.9,    0.3,    0.4,    0.6,    0.6,    0.2,    0.6,    1.1,    1.8,  999.0,  999.0,    0.5,    1.7,    0.5,  999.0,    0.4,    0.3,    0.7,    1.4,    0.4,    1.7,    1.6,    1.1
2000/12/21 18:50,  999.0,  999.0,    8.1,    7.0,    2.6,    3.8,    2.8,    1.8,    2.0,    2.5,    2.6,    2.5,    3.1,    3.2,    1.0,  999.0,    2.2,   -0.1,   -3.2,  999.0,  999.0,  999.0,  999.0,  999.0,  999.0,  999.0,   -0.0,    0.7,    0.7,    0.7,    0.6,    0.8,    0.5,    0.6,    0.9,    0.3,    0.4,    0.0,    0.3,    0.9,  999.0,    0.6,    1.0,  999.0,    1.0,    0.6,    0.4,    0.0,    0.7,    0.9,    0.6,    0.0,    0.5,    0.8,    1.5,    0.8,    0.6,    1.1
2000/12/21 19:00,  999.0,  999.0,  999.0,    8.1,    4.6,   -0.1,    1.9,    2.8,    3.7,    3.3,    3.2,    1.6,    3.0,    3.5,    2.1,   -0.3,    0.2,   -0.1,  999.0,  999.0,  999.0,  999.0,  999.0,  999.0,  999.0,  999.0,  999.0,    1.4,    0.6,    0.9,    0.8,    0.2,    0.7,    0.1,    0.5,    0.9,    0.4,    0.6,    0.8,    0.6,  999.0,    0.5,  999.0,    0.5,   -0.7,    0.6,    0.7,    0.7,    1.3,    0.4,    0.5,    1.1,    0.7,    0.0,    0.4,    1.3,    1.1,    0.4
2000/12/21 19:10,  999.0,  999.0,    4.8,    5.1,    6.9,    3.3,    2.5,    3.4,    2.8,    1.5,    0.5,    1.2,    3.6,    4.6,    3.8,  999.0,  999.0,  999.0,  999.0,  999.0,  999.0,  999.0,  999.0,  999.0,  999.0,    7.6,   -0.9,  999.0,    4.5,  999.0,  999.0,  999.0,  999.0,  999.0,    0.8,    0.9,    0.3,    1.2,    1.0,  999.0,    1.1,    0.3,    0.9,    0.9,    1.1,    1.0,    1.3,   -0.3,    0.8,    1.0,    0.6,    0.7,  999.0,    0.5,    1.0,    1.3,    0.8,    0.5
2000/12/21 19:20,  999.0,    1.1,   -0.7,    2.7,    5.7,    2.9,   -1.2,    0.4,    1.7,    0.1,    1.2,    2.1,    2.7,    3.8,    1.9,    1.1,  999.0,  999.0,   -0.2,  999.0,  999.0,  999.0,  999.0,  999.0,  999.0,  999.0,  999.0,    5.4,    4.6,    2.9,    0.8,  999.0,    1.2,  999.0,  999.0,    0.4,   -6.1,    0.9,  999.0,    1.2,  999.0,  999.0,    0.9,  999.0,  999.0,  999.0,    0.6,    0.9,  999.0,    1.3,    0.2,  999.0,  999.0,  999.0,    0.7,  999.0,  999.0,    0.6
2000/12/21 19:30,  999.0,  999.0,  999.0,  999.0,  999.0,  999.0,    2.9,    1.6,    5.3,    0.9,    0.4,    0.5,    3.1,  999.0,  999.0,  999.0,  999.0,  999.0,  999.0,  999.0,  999.0,  999.0,  999.0,  999.0,  999.0,  999.0,    7.1,    5.4,  999.0,    3.0,    4.6,  999.0,    3.8,    0.9,    0.5,    4.8,  999.0,    0.3,    1.2,    0.6,    0.5,    0.3,    0.4,    1.2,    0.6,    0.6,    0.9,    0.6,    0.7,    0.5,  999.0,  999.0,    0.1,  999.0,    0.7,    0.3,  999.0,    0.5
2000/12/21 19:40,  999.0,  999.0,   -0.7,    1.0,    1.9,    0.9,   -2.1,    0.7,    1.4,    1.3,    1.3,    1.8,    1.8,    0.4,  999.0,   -0.9,  999.0,   -0.1,  999.0,   -2.3,  999.0,  999.0,  999.0,    7.8,  999.0,  999.0,  999.0,  999.0,  999.0,   10.6,    9.6,  999.0,  999.0,    6.4,  999.0,  999.0,    8.2,  999.0,    2.3,    3.7,  999.0,  999.0,  999.0,  999.0,    1.4,    2.6,  999.0,    1.2,    1.7,    1.3,    1.0,  999.0,  999.0,  999.0,    0.9,  999.0,    0.5,    0.8
2000/12/21 19:50,  999.0,  999.0,    5.4,    7.1,    4.6,    3.7,    2.7,    0.7,    1.0,    2.2,    1.4,    2.4,    4.8,    3.7,    4.4,  999.0,  999.0,  999.0,  999.0,  999.0,  999.0,  999.0,  999.0,  999.0,  999.0,  999.0,  999.0,  999.0,   -0.5,  999.0,  999.0,  999.0,  999.0,  999.0,  999.0,  999.0,  999.0,  999.0,   -0.1,    0.4,    0.8,  999.0,    0.4,    1.0,    0.6,    0.7,    0.8,  999.0,    1.8,    0.4,    1.4,    0.6,    1.5,  999.0,    0.9,    1.0,    0.6,    0.6
2000/12/21 20:00,  999.0,  999.0,  999.0,    5.7,    6.6,    5.0,    3.1,    2.3,    0.2,    1.9,    2.3,    3.3,    3.5,    3.9,    7.2,  999.0,   -0.3,  999.0,  999.0,    8.5,  999.0,  999.0,  999.0,  999.0,  999.0,  999.0,  999.0,  999.0,  999.0,  999.0,    4.8,  999.0,  999.0,  999.0,  999.0,    0.7,    0.8,    0.7,    0.4,    0.6,    0.0,  999.0,    0.7,    1.1,  999.0,    1.1,    0.7,    0.2,    0.8,    0.9,    0.8,    0.8,  999.0,  999.0,  999.0,    1.1,    0.8,    0.1
2000/12/21 20:10,  999.0,  999.0,   14.1,    6.1,    5.1,    3.7,    3.6,    3.2,    3.1,    3.8,    3.6,    3.8,    4.3,    1.5,    4.9,    5.5,    5.6,  999.0,  999.0,  999.0,  999.0,  999.0,  999.0,  999.0,  999.0,  999.0,  999.0,  999.0,  999.0,  999.0,  999.0,  999.0,    3.6,    2.4,  999.0,    0.5,    1.1,    1.6,    0.9,    1.7,    0.4,    1.2,    0.6,    0.4,    0.9,  999.0,    0.8,    0.2,    1.5,    1.3,    1.0,    0.6,    0.6,    1.1,    1.0,    1.2,    0.7,    1.0
2000/12/21 20:20,  999.0,  999.0,    2.2,    4.3,    5.2,    6.3,    7.8,    6.6,    2.9,    3.6,    6.8,    0.8,    2.2,    2.8,  999.0,    6.6,    5.1,    6.7,  999.0,  999.0,  999.0,  999.0,  999.0,  999.0,  999.0,  999.0,  999.0,  999.0,  999.0,  999.0,  999.0,    5.9,    4.5,    3.2,    2.4,    0.9,    0.8,    0.3,    0.0,    0.3,  999.0,    0.8,    0.9,    0.8,    0.9,    0.8,    0.6,    1.0,    0.7,  999.0,    0.8,  999.0,    1.1,    0.7,  999.0,    0.6,  999.0,  999.0
2000/12/21 20:30,  999.0,  999.0,  999.0,    2.6,    3.3,    3.6,    3.8,    3.4,    2.5,    2.2,    0.5,    2.2,    2.0,    3.1,    4.4,    5.4,    3.4,  999.0,  999.0,  999.0,  999.0,  999.0,  999.0,  999.0,  999.0,  999.0,  999.0,  999.0,    8.8,  999.0,  999.0,    0.7,    5.6,  -15.8,  999.0,    2.9,    1.9,    0.8,    1.0,    0.9,    0.0,    0.3,   -0.0,    1.1,    1.5,    0.4,    1.0,  999.0,    0.5,    1.2,    0.9,    1.5,    0.8,  999.0,   -2.3,    1.4,  999.0,    0.0
2000/12/21 20:40,  999.0,    4.5,    1.2,    2.2,    2.4,    2.1,    2.5,    1.7,    2.9,    2.5,    0.4,    3.6,   -3.6,    4.6,  999.0,  999.0,  999.0,  999.0,  999.0,  999.0,  999.0,  999.0,  999.0,  999.0,  999.0,  999.0,  999.0,  999.0,  999.0,  999.0,  999.0,  999.0,    3.8,  999.0,    1.1,    0.9,  999.0,  999.0,    1.5,  999.0,  999.0,    0.8,    0.4,    0.8,    1.5,    0.5,    1.1,  999.0,  999.0,    1.6,  999.0,  999.0,    0.8,   -0.0,    0.9,    0.3,  999.0,    2.0
2000/12/21 20:50,  999.0,  999.0,  999.0,   10.0,  999.0,  999.0,    3.1,    2.5,    2.5,    2.1,    1.1,    2.1,    2.7,    4.0,    3.8,  999.0,  999.0,    2.6,  999.0,    0.4,  999.0,  999.0,  999.0,  999.0,  999.0,  999.0,  999.0,  999.0,  999.0,  999.0,  999.0,  999.0,  999.0,  999.0,  999.0,  999.0,  999.0,  999.0,    1.1,  999.0,    1.2,    0.2,    1.0,  999.0,   -0.3,    0.8,  999.0,    0.8,    1.0,    0.7,    0.8,  999.0,  999.0,  999.0,    1.1,    1.0,    0.6,    0.5
2000/12/21 21:00,  999.0,  999.0,  999.0,  999.0,  999.0,  999.0,    2.9,    3.5,    3.1,    3.5,    1.5,    2.5,    2.6,  999.0,  999.0,    4.0,  999.0,    0.6,  999.0,  999.0,  999.0,   -1.0,  999.0,    0.8,  999.0,  999.0,  999.0,  999.0,  999.0,  999.0,  999.0,  999.0,  999.0,    0.4,  999.0,    1.2,  999.0,    0.4,    0.3,    0.5,    1.3,    1.3,    0.6,  999.0,  999.0,    1.1,    1.0,  999.0,    1.0,    1.3,    1.3,   -0.2,    0.6,    0.6,    0.8,    0.3,    1.1,    0.7
2000/12/21 21:10,  999.0,  999.0,  999.0,  999.0,  999.0,    2.5,  999.0,    3.3,  999.0,    4.0,    3.3,    4.4,    5.8,    3.4,    8.4,    3.5,  999.0,  999.0,  999.0,  999.0,  999.0,  999.0,    1.8,  999.0,  999.0,  999.0,  999.0,  999.0,  999.0,  999.0,  999.0,  999.0,  999.0,  999.0,  999.0,  999.0,    1.7,  999.0,    0.8,  999.0,  999.0,    0.7,    0.5,    0.6,  999.0,  999.0,  999.0,    1.0,  999.0,    1.5,    0.4,   -0.1,    0.6,  999.0,    0.2,    0.9,    1.1,    0.5
2000/12/21 21:20,  999.0,  999.0,  999.0,   21.2,   21.3,  999.0,  999.0,    2.4,    3.1,    3.1,   12.3,    9.6,   21.1,  999.0,  999.0,  999.0,  999.0,  999.0,   17.2,  999.0,  999.0,  999.0,  999.0,  999.0,  999.0,  999.0,  999.0,  999.0,  999.0,  999.0,    4.5,    1.4,    1.5,  999.0,    0.4,    0.9,  999.0,    0.6,    0.9,    1.0,    0.7,    0.7,    0.8,    0.3,    1.0,    0.8,    0.8,    1.0,    0.8,    1.2,    0.8,  999.0,    0.5,    0.4,    0.8,  999.0,    0.9,    0.8
2000/12/21 21:30,  999.0,    6.0,    1.3,  999.0,  999.0,    0.9,    2.0,    2.7,    1.7,    2.6,    3.4,    4.0,    1.4,  999.0,  999.0,  999.0,  999.0,  999.0,  999.0,  999.0,  999.0,  999.0,  999.0,  999.0,  999.0,  999.0,  999.0,    8.7,    2.6,  999.0,  999.0,    4.3,    3.3,  999.0,    1.1,    0.7,    0.9,    0.8,    0.8,    0.7,    1.1,    0.6,    1.2,    0.8,  999.0,    0.1,  999.0,    0.3,    0.3,    0.7,    0.8,  999.0,    0.8,   -4.4,    0.5,  999.0,    0.4,  999.0
2000/12/21 21:40,  999.0,    2.9,    1.2,    1.1,    1.6,    3.7,    2.9,    4.2,    3.3,    3.7,    3.2,    4.7,  999.0,    7.8,    8.5,   20.8,    9.1,   18.8,  999.0,  999.0,  999.0,   12.6,   12.4,  999.0,  999.0,  999.0,    6.8,  999.0,    4.8,  999.0,  999.0,    0.7,    0.6,    1.1,  999.0,  999.0,    1.0,   -0.1,    0.4,  999.0,  999.0,  999.0,  999.0,    0.4,  999.0,  999.0,  999.0,  999.0,  999.0,  999.0,    0.7,  999.0,  999.0,    0.8,    1.2,  999.0,  999.0,    0.7
2000/12/21 21:50,  999.0,    3.7,    1.4,    1.6,    2.2,    2.4,    3.0,    3.7,  999.0,    3.4,    5.2,  999.0,    5.1,  999.0,  999.0,  999.0,  999.0,  999.0,   15.2,   14.6,  999.0,  999.0,   -2.5,   10.8,  999.0,  999.0,    8.0,    5.3,   -0.1,    3.1,    3.5,  999.0,    0.3,    1.1,    0.9,    0.9,  999.0,  999.0,    0.4,    0.5,    0.1,    0.7,    0.9,    0.8,    1.4,  999.0,    0.8,    0.7,  999.0,    0.7,  999.0,    0.0,    1.0,    0.9,  999.0,  999.0,    1.2,    0.9
2000/12/21 22:00,  999.0,    3.5,    1.0,   -0.4,    1.0,    2.0,    2.1,    6.4,    2.7,    4.7,    7.0,    8.7,  999.0,  999.0,  999.0,  999.0,  999.0,  999.0,  999.0,  999.0,   16.5,  999.0,  999.0,  999.0,  999.0,   10.7,  999.0,  999.0,  999.0,    2.4,    8.1,  999.0,    1.5,    3.8,  999.0,  999.0,    3.2,    2.6,    0.8,    1.0,    0.2,    0.7,    0.7,  999.0,    0.7,  999.0,  999.0,    1.0,    0.2,  999.0,    0.9,  999.0,    0.1,   -0.1,  999.0,    1.5,    0.8,    0.7
2000/12/21 22:10,  999.0,  999.0,    1.2,    3.8,    1.4,    2.0,    2.5,    4.0,    3.4,    4.9,  999.0,    7.0,    6.2,  999.0,  999.0,   13.6,  999.0,   11.1,  999.0,  999.0,  999.0,  999.0,  999.0,   13.3,   12.6,   11.9,   14.7,   12.1,  999.0,  999.0,    8.4,  999.0,    8.2,    4.9,    8.0,    4.2,  999.0,    5.3,    4.8,    2.5,    1.2,    2.7,    0.7,    1.8,    1.0,    1.2,    1.1,    0.0,    0.8,    1.1,    0.8,    0.1,    0.9,    0.9,    0.8,    1.2,  999.0,  999.0
2000/12/21 22:20,  999.0,    3.8,    2.2,    5.1,    1.5,    1.3,    2.1,    3.7,    6.4,    3.4,    3.8,    4.6,  999.0,    8.0,  999.0,    6.9,  999.0,  999.0,   10.1,  999.0,    6.7,    6.5,  999.0,  999.0,  999.0,   12.0,    9.7,    9.5,    7.6,    7.6,    6.3,    5.2,  999.0,  999.0,    2.4,  999.0,    1.0,    3.8,  999.0,  999.0,    0.5,    0.6,    0.8,  999.0,    1.5,    1.2,  999.0,    0.8,    0.3,  999.0,    0.4,    0.6,    0.8,  999.0,  999.0,   -0.4,  999.0,  999.0
2000/12/21 22:30,  999.0,    2.8,    1.4,    2.9,    0.9,    1.6,    2.3,    4.3,    4.3,    6.3,    3.6,    4.9,    5.9,    9.0,  999.0,    4.2,  999.0,  999.0,  999.0,  999.0,  999.0,  999.0,  999.0,  999.0,  999.0,  999.0,  999.0,  999.0,  999.0,    8.6,  999.0,    7.0,  999.0,    4.9,    7.2,    2.8,    2.1,    8.2,    0.1,    0.6,    5.9,  999.0,    2.6,  999.0,    1.8,    2.2,    1.6,    1.6,    0.7,    1.2,  999.0,    0.3,    0.7,  999.0,    1.2,    0.4,  999.0,    0.4
2000/12/21 22:40,  999.0,    3.1,    1.6,    2.5,    1.2,    1.5,    2.7,    4.9,    7.3,    6.5,    4.8,    4.9,    5.5,    5.6,    6.0,  999.0,  999.0,  999.0,  999.0,  999.0,  999.0,   10.3,  999.0,  999.0,  999.0,  999.0,    9.0,    7.6,    9.9,  999.0,    5.8,    4.3,    3.6,    3.9,    1.9,    1.2,  999.0,    1.0,    0.7,    0.7,    0.0,    1.0,  999.0,    0.6,  999.0,    0.3,    0.4,    0.6,  999.0,    0.7,    0.6,    1.5,    1.3,   -0.1,    1.8,    1.7,    1.0,    0.7
2000/12/21 22:50,  999.0,    5.0,    2.9,    2.6,  999.0,    2.6,    2.6,    4.5,    6.0,    7.1,    4.5,    4.8,    5.1,    5.8,    7.0,  999.0,    6.3,    7.2,  999.0,  999.0,  999.0,  999.0,  999.0,  999.0,  -31.3,  999.0,  999.0,  -34.8,  999.0,    3.9,  -38.0,    0.7,  999.0,    2.0,    1.6,    0.1,    0.8,  -20.9,  999.0,  999.0,  999.0,  999.0,    2.1,    1.0,    1.1,  -20.5,  -20.8,  999.0,  999.0,  999.0,    0.7,  999.0,  999.0,  999.0,  999.0,  999.0,  999.0,  -42.4
2000/12/21 23:00,  999.0,    3.4,    1.4,    1.8,    0.8,    1.6,    3.5,    4.9,    6.4,    4.9,    5.1,    5.5,    5.2,    5.4,    4.5,  999.0,  999.0,  999.0,  999.0,  999.0,  999.0,  999.0,  999.0,    3.6,  999.0,  999.0,  999.0,  999.0,  999.0,    6.9,  999.0,  999.0,  999.0,    3.3,    1.9,   -0.2,    0.1,    0.5,    0.9,    0.6,    0.5,    0.8,    1.0,  999.0,  999.0,  999.0,    0.8,    0.2,    1.4,    0.2,  999.0,  999.0,    1.0,  999.0,  999.0,    0.4,    0.6,  999.0
2000/12/21 23:10,  999.0,    1.3,    0.5,    1.5,    0.7,    2.0,    3.9,    5.0,    7.1,    5.4,    6.8,    6.2,    6.2,    6.2,    7.1,  999.0,  999.0,  999.0,  999.0,  999.0,  999.0,  999.0,  999.0,  999.0,   12.6,    8.4,    6.8,  999.0,    7.2,    6.1,    5.0,    4.8,  999.0,    0.7,    0.2,    1.3,    0.3,    0.7,  999.0,    0.9,    1.0,  999.0,  999.0,    0.7,  999.0,    0.6,    1.3,    1.3,    0.9,    0.5,  999.0,    0.9,    0.3,    0.6,    0.2,    0.9,    0.5,  999.0
2000/12/21 23:20,  999.0,    3.0,    1.4,    0.6,   -1.3,    1.3,    2.6,    3.8,    5.0,    5.6,    6.2,    6.6,    4.5,    5.1,  999.0,    8.1,   12.0,    3.0,  999.0,   -0.7,    2.9,    9.5,  999.0,   -1.2,  999.0,  999.0,   10.1,    5.9,  999.0,  999.0,  999.0,  999.0,  999.0,  999.0,  999.0,    0.6,    0.8,    1.4,  999.0,    1.0,    0.4,    0.0,  999.0,    0.2,  999.0,  999.0,  999.0,  999.0,    0.3,  999.0,    0.4,    0.6,  999.0,  999.0,  999.0,  999.0,    0.9,    0.4
2000/12/21 23:30,  999.0,    5.4,    2.0,    2.3,    2.4,    2.0,    3.3,    4.7,    5.6,    5.6,    6.3,  999.0,    6.2,    6.1,    6.2,  999.0,    6.9,  999.0,    5.1,    3.3,  999.0,  999.0,  999.0,  999.0,   -0.8,   11.4,   10.7,   -3.5,  999.0,    6.9,    3.5,    5.9,    1.7,    2.8,    1.2,  999.0,    0.3,    1.2,    1.1,    1.2,    0.6,    0.5,    0.2,  999.0,    0.9,    0.7,    1.1,    1.1,   -0.2,    0.7,    1.4,    1.2,    0.8,  999.0,    0.7,    0.5,    0.7,    0.4
2000/12/21 23:40,  999.0,    3.4,   -0.1,    1.4,    1.4,    2.5,    4.6,    5.6,    5.4,    5.6,    6.2,    5.9,    5.0,    4.7,    5.2,    5.2,    6.3,    5.7,  999.0,  999.0,  999.0,  999.0,  999.0,  999.0,  999.0,  999.0,  999.0,  999.0,    9.9,    6.8,    7.8,    7.0,    2.4,    3.5,  999.0,    1.1,    0.7,    0.8,    0.4,  999.0,    0.8,    0.2,    0.5,    0.8,    0.6,   -6.6,  999.0,  999.0,    0.5,    1.4,    0.7,    0.2,    0.5,    0.9,  999.0,  999.0,  999.0,    0.4
2000/12/21 23:50,  999.0,    3.4,    1.9,    0.9,    1.9,    3.2,    4.7,    6.3,    5.7,    7.0,    5.7,    5.3,    6.3,    6.4,    5.9,    7.2,    6.9,    5.4,    5.0,    4.4,    5.0,    4.5,  999.0,  999.0,  999.0,   11.9,  999.0,    8.5,  999.0,    7.2,  999.0,    4.6,    3.1,    2.8,    1.5,  999.0,  999.0,    1.1,    0.7,    0.5,  999.0,    0.8,  999.0,    0.9,    1.1,    0.6,  999.0,    1.2,    0.7,    0.6,    0.5,    0.7,    1.0,    0.7,    0.6,    1.2,    0.9,    0.3
